| time (UTC) | temp F | wind direction | speed MPH | gust MPH | rain 1hr in | rain 24hr in | rain mn in | humidity % | barometer mb |
| 20260906004058 | 55 | 285 | 13.0 | 27.0 | 0.00 | 0.00 | 0.00 | 100 | 962.9 |
| 20260906003957 | 55 | 289 | 14.0 | 27.0 | 0.00 | 0.00 | 0.00 | 100 | 962.9 |
| 20260906003855 | 55 | 292 | 14.0 | 22.0 | 0.00 | 0.00 | 0.00 | 100 | 962.9 |
| 20260906003652 | 55 | 300 | 14.0 | 22.0 | 0.00 | 0.00 | 0.00 | 100 | 963.0 |
| 20260906003448 | 55 | 295 | 12.0 | 20.0 | 0.00 | 0.00 | 0.00 | 100 | 962.8 |
| 20260906003347 | 55 | 293 | 10.0 | 20.0 | 0.00 | 0.00 | 0.00 | 100 | 963.0 |
| 20260906003245 | 55 | 290 | 10.0 | 20.0 | 0.00 | 0.00 | 0.00 | 100 | 962.9 |
| 20260906003042 | 55 | 289 | 10.0 | 16.0 | 0.00 | 0.00 | 0.00 | 100 | 963.1 |
| 20260906002839 | 55 | 292 | 11.0 | 23.0 | 0.00 | 0.00 | 0.00 | 100 | 962.9 |
| 20260906002738 | 55 | 286 | 11.0 | 23.0 | 0.00 | 0.00 | 0.00 | 100 | 963.0 |
| 20260906002636 | 55 | 289 | 12.0 | 23.0 | 0.00 | 0.00 | 0.00 | 100 | 963.0 |
| 20260906002433 | 55 | 285 | 11.0 | 24.0 | 0.00 | 0.00 | 0.00 | 100 | 962.9 |
| 20260906002230 | 55 | 290 | 13.0 | 25.0 | 0.00 | 0.00 | 0.00 | 100 | 962.9 |
| 20260906002129 | 55 | 290 | 12.0 | 25.0 | 0.00 | 0.00 | 0.00 | 100 | 963.0 |
| 20260906002026 | 55 | 288 | 14.0 | 25.0 | 0.00 | 0.00 | 0.00 | 100 | 963.1 |
| 20260906001824 | 55 | 283 | 11.0 | 23.0 | 0.00 | 0.00 | 0.00 | 100 | 962.9 |
| 20260906001620 | 55 | 280 | 11.0 | 22.0 | 0.00 | 0.00 | 0.00 | 100 | 963.0 |
| 20260906001520 | 55 | 273 | 10.0 | 22.0 | 0.00 | 0.00 | 0.00 | 100 | 962.7 |
| 20260906001418 | 55 | 270 | 9.0 | 22.0 | 0.00 | 0.00 | 0.00 | 100 | 962.9 |
| 20260906001214 | 55 | 274 | 9.0 | 22.0 | 0.00 | 0.00 | 0.00 | 100 | 962.7 |
| 20260906001011 | 55 | 283 | 10.0 | 22.0 | 0.00 | 0.00 | 0.00 | 100 | 963.0 |
| 20260906000911 | 55 | 288 | 11.0 | 22.0 | 0.00 | 0.00 | 0.00 | 100 | 963.0 |
| 20260906000809 | 55 | 289 | 12.0 | 18.0 | 0.00 | 0.00 | 0.00 | 100 | 963.0 |
| 20260906000605 | 55 | 292 | 10.0 | 17.0 | 0.00 | 0.00 | 0.00 | 100 | 963.0 |
| 20260906000403 | 54 | 288 | 8.0 | 14.0 | 0.00 | 0.00 | 0.00 | 100 | 963.2 |
| 20260906000303 | 54 | 283 | 8.0 | 16.0 | 0.00 | 0.00 | 0.00 | 100 | 963.3 |
| 20260906000159 | 54 | 275 | 8.0 | 16.0 | 0.00 | 0.00 | 0.00 | 100 | 963.2 |
| 20260905235956 | 54 | 269 | 8.0 | 16.0 | 0.00 | 0.00 | 0.00 | 100 | 963.0 |
| 20260905235753 | 54 | 284 | 8.0 | 15.0 | 0.00 | 0.00 | 0.00 | 100 | 963.1 |
| 20260905235653 | 54 | 287 | 8.0 | 19.0 | 0.00 | 0.00 | 0.00 | 100 | 963.2 |
| 20260905235550 | 53 | 289 | 10.0 | 19.0 | 0.00 | 0.00 | 0.00 | 100 | 963.1 |
| 20260905235347 | 54 | 289 | 12.0 | 19.0 | 0.00 | 0.00 | 0.00 | 100 | 963.2 |
| 20260905235144 | 53 | 289 | 11.0 | 17.0 | 0.00 | 0.00 | 0.00 | 100 | 963.2 |
| 20260905235043 | 53 | 296 | 12.0 | 22.0 | 0.00 | 0.00 | 0.00 | 100 | 963.2 |
| 20260905234941 | 53 | 303 | 11.0 | 22.0 | 0.00 | 0.00 | 0.00 | 100 | 963.3 |
| 20260905234725 | 54 | 304 | 11.0 | 22.0 | 0.00 | 0.00 | 0.00 | 100 | 963.2 |
| 20260905234521 | 54 | 291 | 12.0 | 20.0 | 0.00 | 0.00 | 0.00 | 100 | 963.3 |
| 20260905234421 | 55 | 286 | 12.0 | 20.0 | 0.00 | 0.00 | 0.00 | 100 | 963.3 |
| 20260905234319 | 55 | 285 | 12.0 | 20.0 | 0.00 | 0.00 | 0.00 | 100 | 963.3 |
| 20260905234115 | 55 | 287 | 13.0 | 24.0 | 0.00 | 0.00 | 0.00 | 100 | 963.3 |
| 20260905233912 | 55 | 292 | 14.0 | 24.0 | 0.00 | 0.00 | 0.00 | 100 | 963.3 |
| 20260905233812 | 55 | 296 | 12.0 | 24.0 | 0.00 | 0.00 | 0.00 | 100 | 963.3 |
| 20260905233709 | 55 | 293 | 12.0 | 21.0 | 0.00 | 0.00 | 0.00 | 100 | 963.1 |
| 20260905233506 | 55 | 287 | 10.0 | 21.0 | 0.00 | 0.00 | 0.00 | 100 | 963.1 |
| 20260905233303 | 55 | 289 | 12.0 | 21.0 | 0.00 | 0.00 | 0.00 | 100 | 963.2 |
| 20260905233203 | 55 | 296 | 14.0 | 24.0 | 0.00 | 0.00 | 0.00 | 100 | 963.2 |
| 20260905233100 | 55 | 298 | 16.0 | 30.0 | 0.00 | 0.00 | 0.00 | 100 | 963.1 |
| 20260905232857 | 55 | 294 | 17.0 | 30.0 | 0.00 | 0.00 | 0.00 | 100 | 963.0 |
| 20260905232654 | 55 | 292 | 13.0 | 30.0 | 0.00 | 0.00 | 0.00 | 100 | 963.1 |
| 20260905232553 | 55 | 293 | 12.0 | 17.0 | 0.00 | 0.00 | 0.00 | 100 | 963.2 |
| 20260905232450 | 55 | 297 | 12.0 | 21.0 | 0.00 | 0.00 | 0.00 | 100 | 963.1 |
| 20260905232248 | 55 | 296 | 11.0 | 21.0 | 0.00 | 0.00 | 0.00 | 100 | 963.2 |
| 20260905232045 | 54 | 300 | 9.0 | 21.0 | 0.00 | 0.00 | 0.00 | 100 | 963.1 |
| 20260905231944 | 54 | 301 | 8.0 | 13.0 | 0.00 | 0.00 | 0.00 | 100 | 963.1 |
| 20260905231841 | 54 | 301 | 8.0 | 13.0 | 0.00 | 0.00 | 0.00 | 100 | 963.1 |
| 20260905231638 | 54 | 305 | 7.0 | 10.0 | 0.00 | 0.00 | 0.00 | 100 | 963.1 |
| 20260905231435 | 54 | 300 | 7.0 | 12.0 | 0.00 | 0.00 | 0.00 | 100 | 963.1 |
| 20260905231335 | 54 | 292 | 8.0 | 16.0 | 0.00 | 0.00 | 0.00 | 100 | 963.1 |
| 20260905231232 | 54 | 293 | 10.0 | 16.0 | 0.00 | 0.00 | 0.00 | 100 | 963.0 |
| 20260905231029 | 54 | 296 | 11.0 | 16.0 | 0.00 | 0.00 | 0.00 | 100 | 963.0 |
| 20260905230825 | 54 | 299 | 13.0 | 21.0 | 0.00 | 0.00 | 0.00 | 100 | 963.1 |
| 20260905230725 | 55 | 298 | 14.0 | 21.0 | 0.00 | 0.00 | 0.00 | 100 | 963.1 |
| 20260905230622 | 55 | 299 | 14.0 | 21.0 | 0.00 | 0.00 | 0.00 | 100 | 963.2 |
| 20260905230419 | 55 | 297 | 14.0 | 23.0 | 0.00 | 0.00 | 0.00 | 100 | 963.1 |
| 20260905230216 | 56 | 293 | 13.0 | 23.0 | 0.00 | 0.00 | 0.00 | 100 | 963.0 |
| 20260905230114 | 57 | 293 | 13.0 | 23.0 | 0.00 | 0.00 | 0.00 | 100 | 962.9 |
| 20260905230012 | 57 | 290 | 13.0 | 20.0 | 0.00 | 0.00 | 0.00 | 100 | 963.0 |
| 20260905225809 | 57 | 293 | 13.0 | 20.0 | 0.00 | 0.00 | 0.00 | 100 | 962.9 |
| 20260905225606 | 57 | 300 | 11.0 | 18.0 | 0.00 | 0.00 | 0.00 | 100 | 962.9 |
| 20260905225505 | 57 | 302 | 10.0 | 16.0 | 0.00 | 0.00 | 0.00 | 100 | 962.9 |
| 20260905225403 | 57 | 299 | 10.0 | 16.0 | 0.00 | 0.00 | 0.00 | 100 | 962.9 |
| 20260905225159 | 57 | 289 | 8.0 | 13.0 | 0.00 | 0.00 | 0.00 | 100 | 962.9 |
| 20260905224956 | 57 | 287 | 8.0 | 15.0 | 0.00 | 0.00 | 0.00 | 100 | 962.8 |
| 20260905224856 | 57 | 286 | 9.0 | 16.0 | 0.00 | 0.00 | 0.00 | 100 | 962.9 |
| 20260905224753 | 57 | 286 | 10.0 | 16.0 | 0.00 | 0.00 | 0.00 | 100 | 962.9 |
| 20260905224550 | 57 | 288 | 12.0 | 18.0 | 0.00 | 0.00 | 0.00 | 100 | 962.9 |
| 20260905224346 | 57 | 288 | 11.0 | 18.0 | 0.00 | 0.00 | 0.00 | 100 | 963.0 |
| 20260905224246 | 57 | 290 | 12.0 | 18.0 | 0.00 | 0.00 | 0.00 | 100 | 963.0 |
| 20260905224143 | 57 | 291 | 11.0 | 16.0 | 0.00 | 0.00 | 0.00 | 100 | 963.0 |
| 20260905223940 | 57 | 295 | 11.0 | 17.0 | 0.00 | 0.00 | 0.00 | 100 | 963.0 |
| 20260905223737 | 57 | 293 | 11.0 | 17.0 | 0.00 | 0.00 | 0.00 | 100 | 962.9 |
| 20260905223636 | 56 | 292 | 11.0 | 18.0 | 0.00 | 0.00 | 0.00 | 100 | 963.1 |
| 20260905223535 | 56 | 290 | 11.0 | 18.0 | 0.00 | 0.00 | 0.00 | 100 | 963.1 |
| 20260905223332 | 56 | 295 | 10.0 | 15.0 | 0.00 | 0.00 | 0.00 | 100 | 963.0 |
| 20260905223129 | 57 | 298 | 10.0 | 17.0 | 0.00 | 0.00 | 0.00 | 100 | 963.1 |
| 20260905223028 | 57 | 298 | 10.0 | 17.0 | 0.00 | 0.00 | 0.00 | 100 | 963.0 |
| 20260905222925 | 57 | 303 | 11.0 | 18.0 | 0.00 | 0.00 | 0.00 | 100 | 963.0 |
| 20260905222722 | 57 | 304 | 12.0 | 19.0 | 0.00 | 0.00 | 0.00 | 100 | 962.9 |
| 20260905222519 | 57 | 298 | 12.0 | 19.0 | 0.00 | 0.00 | 0.00 | 100 | 962.9 |
| 20260905222418 | 57 | 301 | 10.0 | 16.0 | 0.00 | 0.00 | 0.00 | 100 | 962.9 |
| 20260905222315 | 57 | 301 | 10.0 | 13.0 | 0.00 | 0.00 | 0.00 | 100 | 963.0 |
| 20260905222113 | 57 | 305 | 11.0 | 17.0 | 0.00 | 0.00 | 0.00 | 100 | 962.9 |
| 20260905221910 | 57 | 302 | 11.0 | 17.0 | 0.00 | 0.00 | 0.00 | 100 | 962.9 |
| 20260905221809 | 57 | 306 | 10.0 | 14.0 | 0.00 | 0.00 | 0.00 | 100 | 962.8 |
| 20260905221707 | 57 | 312 | 10.0 | 14.0 | 0.00 | 0.00 | 0.00 | 100 | 963.0 |
| 20260905221503 | 57 | 327 | 11.0 | 18.0 | 0.00 | 0.00 | 0.00 | 100 | 962.9 |
| 20260905221300 | 58 | 323 | 13.0 | 20.0 | 0.00 | 0.00 | 0.00 | 100 | 962.9 |
| 20260905221159 | 58 | 321 | 13.0 | 20.0 | 0.00 | 0.00 | 0.00 | 100 | 962.9 |
| 20260905221057 | 58 | 320 | 14.0 | 21.0 | 0.00 | 0.00 | 0.00 | 100 | 962.8 |
| 20260905220854 | 58 | 323 | 14.0 | 21.0 | 0.00 | 0.00 | 0.00 | 100 | 962.8 |
| 20260905220651 | 57 | 329 | 12.0 | 19.0 | 0.00 | 0.00 | 0.00 | 100 | 962.8 |
| 20260905220550 | 58 | 332 | 12.0 | 19.0 | 0.00 | 0.00 | 0.00 | 100 | 962.7 |
| 20260905220448 | 57 | 336 | 12.0 | 19.0 | 0.00 | 0.00 | 0.00 | 100 | 962.9 |
| 20260905220244 | 57 | 339 | 12.0 | 19.0 | 0.00 | 0.00 | 0.00 | 100 | 962.8 |
| 20260905220041 | 57 | 339 | 10.0 | 19.0 | 0.00 | 0.00 | 0.00 | 100 | 962.7 |
| 20260905215940 | 57 | 339 | 11.0 | 19.0 | 0.00 | 0.00 | 0.00 | 100 | 962.6 |
| 20260905215837 | 58 | 340 | 12.0 | 23.0 | 0.00 | 0.00 | 0.00 | 100 | 962.6 |
| 20260905215634 | 58 | 337 | 13.0 | 23.0 | 0.00 | 0.00 | 0.00 | 100 | 962.6 |
| 20260905215431 | 59 | 332 | 12.0 | 21.0 | 0.00 | 0.00 | 0.00 | 100 | 962.6 |
| 20260905215331 | 59 | 327 | 12.0 | 21.0 | 0.00 | 0.00 | 0.00 | 100 | 962.4 |
| 20260905215228 | 60 | 327 | 11.0 | 18.0 | 0.00 | 0.00 | 0.00 | 100 | 962.3 |
| 20260905215025 | 60 | 328 | 10.0 | 16.0 | 0.00 | 0.00 | 0.00 | 100 | 962.3 |
| 20260905214822 | 61 | 322 | 9.0 | 16.0 | 0.00 | 0.00 | 0.00 | 100 | 962.2 |
| 20260905214721 | 61 | 314 | 9.0 | 14.0 | 0.00 | 0.00 | 0.00 | 100 | 962.3 |
| 20260905214619 | 61 | 301 | 10.0 | 18.0 | 0.00 | 0.00 | 0.00 | 100 | 962.3 |
| 20260905214416 | 61 | 293 | 12.0 | 22.0 | 0.00 | 0.00 | 0.00 | 100 | 962.2 |
| 20260905214212 | 61 | 289 | 14.0 | 24.0 | 0.00 | 0.00 | 0.00 | 100 | 962.2 |
| 20260905214112 | 62 | 286 | 14.0 | 24.0 | 0.00 | 0.00 | 0.00 | 100 | 962.0 |
| 20260905214009 | 62 | 288 | 13.0 | 24.0 | 0.00 | 0.00 | 0.00 | 100 | 961.9 |
| 20260905213806 | 62 | 291 | 11.0 | 20.0 | 0.00 | 0.00 | 0.00 | 100 | 962.1 |
| 20260905213602 | 61 | 298 | 11.0 | 20.0 | 0.00 | 0.00 | 0.00 | 100 | 962.1 |
| 20260905213501 | 61 | 298 | 9.0 | 15.0 | 0.00 | 0.00 | 0.00 | 100 | 962.1 |
| 20260905213359 | 61 | 298 | 9.0 | 15.0 | 0.00 | 0.00 | 0.00 | 100 | 962.0 |
| 20260905213156 | 61 | 288 | 9.0 | 20.0 | 0.00 | 0.00 | 0.00 | 100 | 962.2 |
| 20260905212953 | 62 | 283 | 9.0 | 20.0 | 0.00 | 0.00 | 0.00 | 100 | 962.0 |
| 20260905212852 | 62 | 280 | 8.0 | 20.0 | 0.00 | 0.00 | 0.00 | 100 | 961.9 |
| 20260905212750 | 62 | 280 | 9.0 | 18.0 | 0.00 | 0.00 | 0.00 | 100 | 962.1 |
| 20260905212546 | 62 | 275 | 10.0 | 18.0 | 0.00 | 0.00 | 0.00 | 100 | 962.0 |
| 20260905212344 | 62 | 290 | 11.0 | 26.0 | 0.00 | 0.00 | 0.00 | 100 | 961.9 |
| 20260905212243 | 61 | 294 | 11.0 | 26.0 | 0.00 | 0.00 | 0.00 | 100 | 962.0 |
| 20260905212140 | 61 | 296 | 11.0 | 26.0 | 0.00 | 0.00 | 0.00 | 100 | 962.0 |
| 20260905211937 | 62 | 294 | 10.0 | 18.0 | 0.00 | 0.00 | 0.00 | 100 | 961.8 |
| 20260905211735 | 61 | 295 | 10.0 | 20.0 | 0.00 | 0.00 | 0.00 | 100 | 962.0 |
| 20260905211634 | 61 | 297 | 10.0 | 20.0 | 0.00 | 0.00 | 0.00 | 100 | 961.8 |
| 20260905211532 | 61 | 299 | 11.0 | 20.0 | 0.00 | 0.00 | 0.00 | 100 | 961.8 |
| 20260905211329 | 62 | 291 | 13.0 | 23.0 | 0.00 | 0.00 | 0.00 | 100 | 961.8 |
| 20260905211126 | 62 | 285 | 15.0 | 26.0 | 0.00 | 0.00 | 0.00 | 100 | 961.7 |
| 20260905211025 | 62 | 286 | 16.0 | 26.0 | 0.00 | 0.00 | 0.00 | 100 | 961.7 |
| 20260905210923 | 62 | 292 | 15.0 | 26.0 | 0.00 | 0.00 | 0.00 | 100 | 961.7 |
| 20260905210709 | 62 | 298 | 15.0 | 26.0 | 0.00 | 0.00 | 0.00 | 100 | 961.5 |
| 20260905210506 | 62 | 290 | 16.0 | 26.0 | 0.00 | 0.00 | 0.00 | 100 | 961.7 |
| 20260905210405 | 62 | 289 | 16.0 | 26.0 | 0.00 | 0.00 | 0.00 | 100 | 961.6 |
| 20260905210303 | 62 | 288 | 14.0 | 26.0 | 0.00 | 0.00 | 0.00 | 100 | 961.7 |
| 20260905210059 | 62 | 287 | 12.0 | 24.0 | 0.00 | 0.00 | 0.00 | 100 | 961.6 |
| 20260905205856 | 62 | 289 | 12.0 | 20.0 | 0.00 | 0.00 | 0.00 | 100 | 961.7 |
| 20260905205755 | 62 | 294 | 10.0 | 20.0 | 0.00 | 0.00 | 0.00 | 100 | 961.8 |
| 20260905205654 | 62 | 292 | 11.0 | 20.0 | 0.00 | 0.00 | 0.00 | 100 | 961.7 |
| 20260905205450 | 62 | 287 | 10.0 | 16.0 | 0.00 | 0.00 | 0.00 | 100 | 961.6 |
| 20260905205247 | 62 | 293 | 11.0 | 21.0 | 0.00 | 0.00 | 0.00 | 100 | 961.5 |
| 20260905205146 | 62 | 299 | 12.0 | 21.0 | 0.00 | 0.00 | 0.00 | 100 | 961.5 |
| 20260905205043 | 62 | 301 | 11.0 | 21.0 | 0.00 | 0.00 | 0.00 | 100 | 961.7 |
| 20260905204840 | 62 | 292 | 8.0 | 21.0 | 0.00 | 0.00 | 0.00 | 100 | 961.5 |
| 20260905204637 | 62 | 278 | 7.0 | 14.0 | 0.00 | 0.00 | 0.00 | 100 | 961.7 |
| 20260905204536 | 62 | 276 | 7.0 | 14.0 | 0.00 | 0.00 | 0.00 | 100 | 961.5 |
| 20260905204433 | 62 | 273 | 7.0 | 14.0 | 0.00 | 0.00 | 0.00 | 100 | 961.6 |
| 20260905204231 | 62 | 272 | 7.0 | 16.0 | 0.00 | 0.00 | 0.00 | 100 | 961.6 |
| 20260905204028 | 62 | 282 | 9.0 | 16.0 | 0.00 | 0.00 | 0.00 | 100 | 961.5 |
| 20260905203928 | 62 | 282 | 9.0 | 16.0 | 0.00 | 0.00 | 0.00 | 100 | 961.5 |
| 20260905203825 | 62 | 285 | 9.0 | 16.0 | 0.00 | 0.00 | 0.00 | 100 | 961.5 |
| 20260905203621 | 62 | 284 | 9.0 | 16.0 | 0.00 | 0.00 | 0.00 | 100 | 961.4 |
| 20260905203418 | 62 | 288 | 10.0 | 16.0 | 0.00 | 0.00 | 0.00 | 100 | 961.5 |
| 20260905203317 | 62 | 296 | 12.0 | 22.0 | 0.00 | 0.00 | 0.00 | 100 | 961.4 |
| 20260905203215 | 62 | 299 | 13.0 | 24.0 | 0.00 | 0.00 | 0.00 | 100 | 961.6 |
| 20260905203011 | 63 | 297 | 14.0 | 28.0 | 0.00 | 0.00 | 0.00 | 100 | 961.3 |
| 20260905202808 | 62 | 288 | 8.0 | 28.0 | 0.00 | 0.00 | 0.00 | 100 | 961.4 |
| 20260905202708 | 62 | 285 | 6.0 | 28.0 | 0.00 | 0.00 | 0.00 | 100 | 961.5 |
| 20260905202605 | 62 | 285 | 5.0 | 15.0 | 0.00 | 0.00 | 0.00 | 100 | 961.5 |
| 20260905202402 | 62 | 288 | 8.0 | 15.0 | 0.00 | 0.00 | 0.00 | 100 | 961.4 |
| 20260905202159 | 62 | 285 | 6.0 | 12.0 | 0.00 | 0.00 | 0.00 | 100 | 961.5 |
| 20260905202059 | 62 | 272 | 6.0 | 12.0 | 0.00 | 0.00 | 0.00 | 100 | 961.2 |
| 20260905201956 | 62 | 267 | 7.0 | 16.0 | 0.00 | 0.00 | 0.00 | 100 | 961.3 |
| 20260905201752 | 62 | 274 | 10.0 | 18.0 | 0.00 | 0.00 | 0.00 | 100 | 961.4 |
| 20260905201549 | 63 | 287 | 12.0 | 18.0 | 0.00 | 0.00 | 0.00 | 100 | 961.2 |
| 20260905201448 | 63 | 285 | 14.0 | 24.0 | 0.00 | 0.00 | 0.00 | 100 | 961.2 |
| 20260905201345 | 63 | 284 | 13.0 | 24.0 | 0.00 | 0.00 | 0.00 | 100 | 961.3 |
| 20260905201142 | 63 | 269 | 11.0 | 24.0 | 0.00 | 0.00 | 0.00 | 100 | 961.2 |
| 20260905200940 | 63 | 266 | 11.0 | 22.0 | 0.00 | 0.00 | 0.00 | 100 | 961.1 |
| 20260905200839 | 63 | 265 | 9.0 | 18.0 | 0.00 | 0.00 | 0.00 | 100 | 961.3 |
| 20260905200736 | 62 | 268 | 9.0 | 18.0 | 0.00 | 0.00 | 0.00 | 100 | 961.4 |
| 20260905200533 | 63 | 265 | 9.0 | 18.0 | 0.00 | 0.00 | 0.00 | 100 | 961.2 |
| 20260905200330 | 63 | 269 | 10.0 | 19.0 | 0.00 | 0.00 | 0.00 | 100 | 961.3 |
| 20260905200230 | 63 | 267 | 10.0 | 19.0 | 0.00 | 0.00 | 0.00 | 100 | 961.3 |
| 20260905200127 | 63 | 266 | 10.0 | 19.0 | 0.00 | 0.00 | 0.00 | 100 | 961.4 |
| 20260905195924 | 63 | 279 | 10.0 | 20.0 | 0.00 | 0.00 | 0.00 | 100 | 961.3 |
| 20260905195721 | 63 | 283 | 10.0 | 20.0 | 0.00 | 0.00 | 0.00 | 100 | 961.4 |
| 20260905195620 | 63 | 282 | 10.0 | 20.0 | 0.00 | 0.00 | 0.00 | 100 | 961.3 |
| 20260905195518 | 63 | 280 | 9.0 | 20.0 | 0.00 | 0.00 | 0.00 | 100 | 961.3 |
| 20260905195315 | 63 | 271 | 9.0 | 23.0 | 0.00 | 0.00 | 0.00 | 100 | 961.3 |
| 20260905195112 | 63 | 261 | 8.0 | 23.0 | 0.00 | 0.00 | 0.00 | 100 | 961.3 |
| 20260905195011 | 63 | 270 | 9.0 | 22.0 | 0.00 | 0.00 | 0.00 | 100 | 961.3 |
| 20260905194908 | 63 | 274 | 9.0 | 22.0 | 0.00 | 0.00 | 0.00 | 100 | 961.3 |
| 20260905194705 | 63 | 278 | 9.0 | 21.0 | 0.00 | 0.00 | 0.00 | 100 | 961.1 |
| 20260905194502 | 63 | 266 | 10.0 | 25.0 | 0.00 | 0.00 | 0.00 | 100 | 961.2 |
| 20260905194401 | 63 | 268 | 10.0 | 25.0 | 0.00 | 0.00 | 0.00 | 100 | 961.1 |
| 20260905194259 | 63 | 276 | 10.0 | 25.0 | 0.00 | 0.00 | 0.00 | 100 | 961.2 |
| 20260905194056 | 63 | 279 | 9.0 | 18.0 | 0.00 | 0.00 | 0.00 | 100 | 961.2 |
| 20260905193852 | 63 | 274 | 8.0 | 18.0 | 0.00 | 0.00 | 0.00 | 100 | 961.1 |
| 20260905193752 | 63 | 267 | 7.0 | 18.0 | 0.00 | 0.00 | 0.00 | 100 | 961.1 |
| 20260905193649 | 63 | 268 | 6.0 | 18.0 | 0.00 | 0.00 | 0.00 | 100 | 961.1 |
| 20260905193446 | 63 | 288 | 8.0 | 16.0 | 0.00 | 0.00 | 0.00 | 100 | 961.1 |
| 20260905193244 | 63 | 295 | 9.0 | 16.0 | 0.00 | 0.00 | 0.00 | 100 | 961.0 |
| 20260905193143 | 63 | 290 | 8.0 | 15.0 | 0.00 | 0.00 | 0.00 | 100 | 961.1 |
| 20260905193040 | 63 | 283 | 7.0 | 16.0 | 0.00 | 0.00 | 0.00 | 100 | 961.1 |
| 20260905192837 | 63 | 265 | 7.0 | 17.0 | 0.00 | 0.00 | 0.00 | 100 | 961.1 |
| 20260905192634 | 63 | 261 | 8.0 | 21.0 | 0.00 | 0.00 | 0.00 | 100 | 961.1 |
| 20260905192533 | 63 | 269 | 8.0 | 21.0 | 0.00 | 0.00 | 0.00 | 100 | 961.1 |
| 20260905192431 | 63 | 274 | 11.0 | 21.0 | 0.00 | 0.00 | 0.00 | 100 | 961.1 |
| 20260905192228 | 63 | 278 | 11.0 | 21.0 | 0.00 | 0.00 | 0.00 | 100 | 961.0 |
| 20260905192024 | 63 | 272 | 8.0 | 21.0 | 0.00 | 0.00 | 0.00 | 100 | 960.8 |
| 20260905191924 | 63 | 272 | 7.0 | 17.0 | 0.00 | 0.00 | 0.00 | 100 | 961.0 |
| 20260905191821 | 63 | 282 | 8.0 | 17.0 | 0.00 | 0.00 | 0.00 | 100 | 961.0 |
| 20260905191617 | 63 | 285 | 9.0 | 17.0 | 0.00 | 0.00 | 0.00 | 100 | 961.1 |
| 20260905191414 | 63 | 281 | 9.0 | 18.0 | 0.00 | 0.00 | 0.00 | 100 | 961.1 |
| 20260905191314 | 63 | 278 | 8.0 | 18.0 | 0.00 | 0.00 | 0.00 | 100 | 961.1 |
| 20260905191211 | 63 | 277 | 7.0 | 18.0 | 0.00 | 0.00 | 0.00 | 100 | 961.1 |
| 20260905191008 | 63 | 287 | 6.0 | 11.0 | 0.00 | 0.00 | 0.00 | 100 | 961.2 |
| 20260905190805 | 63 | 278 | 7.0 | 16.0 | 0.00 | 0.00 | 0.00 | 100 | 961.1 |
| 20260905190704 | 63 | 268 | 8.0 | 22.0 | 0.00 | 0.00 | 0.00 | 100 | 961.2 |
| 20260905190602 | 63 | 258 | 8.0 | 23.0 | 0.00 | 0.00 | 0.00 | 100 | 961.1 |
| 20260905190358 | 63 | 257 | 6.0 | 23.0 | 0.00 | 0.00 | 0.00 | 100 | 961.1 |
| 20260905190155 | 63 | 273 | 6.0 | 10.0 | 0.00 | 0.00 | 0.00 | 100 | 961.2 |
| 20260905190054 | 63 | 282 | 6.0 | 14.0 | 0.00 | 0.00 | 0.00 | 100 | 961.1 |
| 20260905185952 | 63 | 284 | 7.0 | 14.0 | 0.00 | 0.00 | 0.00 | 100 | 961.1 |
| 20260905185749 | 63 | 282 | 8.0 | 17.0 | 0.00 | 0.00 | 0.00 | 100 | 961.0 |
| 20260905185546 | 63 | 272 | 10.0 | 19.0 | 0.00 | 0.00 | 0.00 | 100 | 961.0 |
| 20260905185446 | 63 | 269 | 11.0 | 19.0 | 0.00 | 0.00 | 0.00 | 100 | 961.0 |
| 20260905185343 | 63 | 261 | 12.0 | 20.0 | 0.00 | 0.00 | 0.00 | 100 | 961.0 |
| 20260905185141 | 63 | 261 | 10.0 | 23.0 | 0.00 | 0.00 | 0.00 | 100 | 960.8 |
| 20260905184936 | 63 | 265 | 6.0 | 23.0 | 0.00 | 0.00 | 0.00 | 100 | 960.9 |
| 20260905184836 | 63 | 267 | 6.0 | 12.0 | 0.00 | 0.00 | 0.00 | 100 | 960.9 |
| 20260905184733 | 63 | 282 | 7.0 | 12.0 | 0.00 | 0.00 | 0.00 | 100 | 960.9 |
| 20260905184530 | 63 | 289 | 8.0 | 18.0 | 0.00 | 0.00 | 0.00 | 100 | 960.8 |
| 20260905184328 | 63 | 292 | 11.0 | 26.0 | 0.00 | 0.00 | 0.00 | 100 | 960.8 |
| 20260905184227 | 64 | 292 | 11.0 | 26.0 | 0.00 | 0.00 | 0.00 | 100 | 960.8 |
| 20260905184125 | 64 | 291 | 10.0 | 26.0 | 0.00 | 0.00 | 0.00 | 100 | 960.7 |
| 20260905183921 | 63 | 285 | 8.0 | 18.0 | 0.00 | 0.00 | 0.00 | 100 | 960.9 |
| 20260905183718 | 63 | 263 | 10.0 | 20.0 | 0.00 | 0.00 | 0.00 | 100 | 960.8 |
| 20260905183618 | 63 | 264 | 10.0 | 20.0 | 0.00 | 0.00 | 0.00 | 100 | 960.8 |
| 20260905183515 | 63 | 265 | 10.0 | 20.0 | 0.00 | 0.00 | 0.00 | 100 | 960.7 |
| 20260905183312 | 63 | 273 | 9.0 | 16.0 | 0.00 | 0.00 | 0.00 | 100 | 960.8 |
| 20260905183109 | 63 | 282 | 11.0 | 16.0 | 0.00 | 0.00 | 0.00 | 100 | 960.7 |
| 20260905183009 | 64 | 286 | 12.0 | 19.0 | 0.00 | 0.00 | 0.00 | 100 | 960.8 |
| 20260905182853 | 64 | 286 | 12.0 | 22.0 | 0.00 | 0.00 | 0.00 | 100 | 960.8 |
| 20260905182650 | 64 | 278 | 13.0 | 22.0 | 0.00 | 0.00 | 0.00 | 100 | 960.7 |
| 20260905182446 | 64 | 266 | 11.0 | 25.0 | 0.00 | 0.00 | 0.00 | 100 | 960.8 |
| 20260905182346 | 64 | 262 | 10.0 | 25.0 | 0.00 | 0.00 | 0.00 | 100 | 960.7 |
| 20260905182243 | 64 | 266 | 10.0 | 26.0 | 0.00 | 0.00 | 0.00 | 100 | 960.7 |
| 20260905182040 | 64 | 270 | 9.0 | 26.0 | 0.00 | 0.00 | 0.00 | 100 | 960.6 |
| 20260905181837 | 63 | 268 | 9.0 | 23.0 | 0.00 | 0.00 | 0.00 | 100 | 960.6 |
| 20260905181736 | 63 | 267 | 9.0 | 23.0 | 0.00 | 0.00 | 0.00 | 100 | 960.7 |
| 20260905181634 | 63 | 265 | 10.0 | 24.0 | 0.00 | 0.00 | 0.00 | 100 | 960.8 |
| 20260905181430 | 63 | 261 | 8.0 | 24.0 | 0.00 | 0.00 | 0.00 | 100 | 960.6 |
| 20260905181227 | 64 | 284 | 11.0 | 20.0 | 0.00 | 0.00 | 0.00 | 100 | 960.6 |
| 20260905181126 | 64 | 286 | 12.0 | 22.0 | 0.00 | 0.00 | 0.00 | 100 | 960.6 |
| 20260905181024 | 64 | 289 | 12.0 | 22.0 | 0.00 | 0.00 | 0.00 | 100 | 960.6 |
| 20260905180821 | 64 | 265 | 10.0 | 23.0 | 0.00 | 0.00 | 0.00 | 100 | 960.7 |
| 20260905180618 | 64 | 262 | 12.0 | 27.0 | 0.00 | 0.00 | 0.00 | 100 | 960.6 |
| 20260905180517 | 64 | 266 | 14.0 | 27.0 | 0.00 | 0.00 | 0.00 | 100 | 960.5 |
| 20260905180414 | 64 | 269 | 13.0 | 27.0 | 0.00 | 0.00 | 0.00 | 100 | 960.4 |
| 20260905180211 | 63 | 281 | 11.0 | 26.0 | 0.00 | 0.00 | 0.00 | 100 | 960.5 |
| 20260905180008 | 64 | 288 | 12.0 | 24.0 | 0.00 | 0.00 | 0.00 | 100 | 960.4 |
| 20260905175907 | 64 | 283 | 12.0 | 22.0 | 0.00 | 0.00 | 0.00 | 100 | 960.3 |
| 20260905175805 | 64 | 286 | 11.0 | 22.0 | 0.00 | 0.00 | 0.00 | 100 | 960.3 |
| 20260905175602 | 64 | 279 | 12.0 | 24.0 | 0.00 | 0.00 | 0.00 | 100 | 960.5 |
| 20260905175359 | 64 | 269 | 14.0 | 28.0 | 0.00 | 0.00 | 0.00 | 100 | 960.5 |
| 20260905175259 | 64 | 271 | 13.0 | 28.0 | 0.00 | 0.00 | 0.00 | 100 | 960.4 |
| 20260905175156 | 64 | 271 | 13.0 | 28.0 | 0.00 | 0.00 | 0.00 | 100 | 960.3 |
| 20260905174953 | 64 | 272 | 11.0 | 22.0 | 0.00 | 0.00 | 0.00 | 100 | 960.5 |
| 20260905174750 | 64 | 273 | 11.0 | 22.0 | 0.00 | 0.00 | 0.00 | 100 | 960.4 |
| 20260905174546 | 64 | 278 | 10.0 | 20.0 | 0.00 | 0.00 | 0.00 | 100 | 960.2 |
| 20260905174344 | 64 | 288 | 9.0 | 18.0 | 0.00 | 0.00 | 0.00 | 100 | 960.4 |
| 20260905174141 | 64 | 289 | 11.0 | 22.0 | 0.00 | 0.00 | 0.00 | 100 | 960.2 |
| 20260905174040 | 64 | 287 | 12.0 | 22.0 | 0.00 | 0.00 | 0.00 | 100 | 960.2 |
| 20260905173938 | 64 | 287 | 12.0 | 22.0 | 0.00 | 0.00 | 0.00 | 100 | 960.3 |
| 20260905173734 | 64 | 286 | 11.0 | 20.0 | 0.00 | 0.00 | 0.00 | 100 | 960.2 |
| 20260905173531 | 64 | 281 | 12.0 | 20.0 | 0.00 | 0.00 | 0.00 | 100 | 960.2 |
| 20260905173431 | 64 | 281 | 12.0 | 22.0 | 0.00 | 0.00 | 0.00 | 100 | 960.2 |
| 20260905173328 | 64 | 285 | 13.0 | 22.0 | 0.00 | 0.00 | 0.00 | 100 | 960.3 |
| 20260905173125 | 64 | 287 | 13.0 | 25.0 | 0.00 | 0.00 | 0.00 | 100 | 960.4 |
| 20260905172922 | 64 | 279 | 12.0 | 24.0 | 0.00 | 0.00 | 0.00 | 100 | 960.2 |
| 20260905172822 | 64 | 276 | 10.0 | 21.0 | 0.00 | 0.00 | 0.00 | 100 | 960.2 |
| 20260905172719 | 64 | 283 | 10.0 | 21.0 | 0.00 | 0.00 | 0.00 | 100 | 960.3 |
| 20260905172517 | 64 | 284 | 9.0 | 16.0 | 0.00 | 0.00 | 0.00 | 100 | 960.3 |
| 20260905172313 | 64 | 279 | 12.0 | 24.0 | 0.00 | 0.00 | 0.00 | 100 | 960.2 |
| 20260905172213 | 64 | 278 | 12.0 | 24.0 | 0.00 | 0.00 | 0.00 | 100 | 960.2 |
| 20260905172110 | 64 | 269 | 12.0 | 24.0 | 0.00 | 0.00 | 0.00 | 100 | 960.2 |
| 20260905171907 | 64 | 267 | 10.0 | 25.0 | 0.00 | 0.00 | 0.00 | 100 | 960.0 |
| 20260905171704 | 64 | 264 | 11.0 | 25.0 | 0.00 | 0.00 | 0.00 | 100 | 960.0 |
| 20260905171602 | 64 | 279 | 10.0 | 20.0 | 0.00 | 0.00 | 0.00 | 100 | 960.1 |
| 20260905171500 | 64 | 286 | 12.0 | 23.0 | 0.00 | 0.00 | 0.00 | 100 | 960.2 |
| 20260905171257 | 64 | 289 | 13.0 | 23.0 | 0.00 | 0.00 | 0.00 | 100 | 960.1 |
| 20260905171055 | 64 | 287 | 12.0 | 23.0 | 0.00 | 0.00 | 0.00 | 100 | 960.0 |
| 20260905170954 | 64 | 280 | 12.0 | 23.0 | 0.00 | 0.00 | 0.00 | 100 | 960.2 |
| 20260905170851 | 64 | 283 | 12.0 | 24.0 | 0.00 | 0.00 | 0.00 | 100 | 960.0 |
| 20260905170648 | 64 | 269 | 13.0 | 24.0 | 0.00 | 0.00 | 0.00 | 100 | 960.0 |
| 20260905170445 | 64 | 265 | 14.0 | 25.0 | 0.00 | 0.00 | 0.00 | 100 | 960.0 |
| 20260905170346 | 64 | 267 | 15.0 | 25.0 | 0.00 | 0.00 | 0.00 | 100 | 959.9 |
| 20260905170242 | 64 | 272 | 13.0 | 25.0 | 0.00 | 0.00 | 0.00 | 100 | 960.0 |
| 20260905170038 | 64 | 279 | 12.0 | 25.0 | 0.00 | 0.00 | 0.00 | 100 | 959.9 |
| 20260905165836 | 64 | 288 | 11.0 | 19.0 | 0.00 | 0.00 | 0.00 | 100 | 960.0 |
| 20260905165734 | 64 | 289 | 11.0 | 20.0 | 0.00 | 0.00 | 0.00 | 100 | 960.0 |
| 20260905165632 | 64 | 289 | 12.0 | 22.0 | 0.00 | 0.00 | 0.00 | 100 | 960.0 |
| 20260905165429 | 64 | 282 | 11.0 | 22.0 | 0.00 | 0.00 | 0.00 | 100 | 960.0 |
| 20260905165226 | 64 | 268 | 11.0 | 23.0 | 0.00 | 0.00 | 0.00 | 100 | 959.8 |
| 20260905165127 | 64 | 279 | 12.0 | 23.0 | 0.00 | 0.00 | 0.00 | 100 | 959.9 |
| 20260905165023 | 64 | 283 | 13.0 | 29.0 | 0.00 | 0.00 | 0.00 | 100 | 959.7 |
| 20260905164820 | 64 | 279 | 16.0 | 29.0 | 0.00 | 0.00 | 0.00 | 100 | 959.8 |
| 20260905164617 | 65 | 269 | 15.0 | 26.0 | 0.00 | 0.00 | 0.00 | 100 | 959.8 |
| 20260905164517 | 65 | 275 | 14.0 | 25.0 | 0.00 | 0.00 | 0.00 | 100 | 959.7 |
| 20260905164414 | 65 | 279 | 13.0 | 22.0 | 0.00 | 0.00 | 0.00 | 100 | 959.7 |
| 20260905164211 | 65 | 282 | 14.0 | 24.0 | 0.00 | 0.00 | 0.00 | 100 | 959.6 |
| 20260905164009 | 65 | 277 | 15.0 | 28.0 | 0.00 | 0.00 | 0.00 | 100 | 959.8 |
| 20260905163806 | 65 | 279 | 16.0 | 28.0 | 0.00 | 0.00 | 0.00 | 100 | 959.5 |
| 20260905163602 | 65 | 278 | 12.0 | 26.0 | 0.00 | 0.00 | 0.00 | 100 | 959.6 |
| 20260905163359 | 64 | 288 | 12.0 | 25.0 | 0.00 | 0.00 | 0.00 | 100 | 959.8 |
| 20260905163258 | 65 | 289 | 12.0 | 25.0 | 0.00 | 0.00 | 0.00 | 100 | 959.7 |
| 20260905163156 | 65 | 289 | 13.0 | 25.0 | 0.00 | 0.00 | 0.00 | 100 | 959.5 |
| 20260905162953 | 65 | 280 | 12.0 | 25.0 | 0.00 | 0.00 | 0.00 | 100 | 959.7 |
| 20260905162750 | 65 | 274 | 13.0 | 25.0 | 0.00 | 0.00 | 0.00 | 100 | 959.6 |
| 20260905162649 | 65 | 280 | 14.0 | 25.0 | 0.00 | 0.00 | 0.00 | 100 | 959.7 |
| 20260905162547 | 65 | 285 | 15.0 | 26.0 | 0.00 | 0.00 | 0.00 | 100 | 959.4 |
| 20260905162343 | 65 | 294 | 12.0 | 26.0 | 0.00 | 0.00 | 0.00 | 100 | 959.4 |
| 20260905162141 | 65 | 285 | 9.0 | 22.0 | 0.00 | 0.00 | 0.00 | 100 | 959.6 |
| 20260905162040 | 65 | 281 | 9.0 | 20.0 | 0.00 | 0.00 | 0.00 | 100 | 959.4 |
| 20260905161938 | 65 | 286 | 10.0 | 25.0 | 0.00 | 0.00 | 0.00 | 100 | 959.5 |
| 20260905161735 | 65 | 288 | 14.0 | 31.0 | 0.00 | 0.00 | 0.00 | 100 | 959.5 |
| 20260905161532 | 65 | 280 | 14.0 | 31.0 | 0.00 | 0.00 | 0.00 | 100 | 959.3 |
| 20260905161431 | 65 | 272 | 12.0 | 24.0 | 0.00 | 0.00 | 0.00 | 100 | 959.3 |
| 20260905161328 | 65 | 275 | 13.0 | 24.0 | 0.00 | 0.00 | 0.00 | 100 | 959.3 |
| 20260905161125 | 65 | 272 | 11.0 | 23.0 | 0.00 | 0.00 | 0.00 | 100 | 959.3 |
| 20260905160923 | 65 | 283 | 11.0 | 28.0 | 0.00 | 0.00 | 0.00 | 100 | 959.3 |
| 20260905160822 | 65 | 283 | 11.0 | 28.0 | 0.00 | 0.00 | 0.00 | 100 | 959.3 |
| 20260905160719 | 65 | 284 | 11.0 | 28.0 | 0.00 | 0.00 | 0.00 | 100 | 959.0 |
| 20260905160516 | 65 | 282 | 12.0 | 20.0 | 0.00 | 0.00 | 0.00 | 100 | 959.3 |
| 20260905160313 | 66 | 287 | 14.0 | 23.0 | 0.00 | 0.00 | 0.00 | 100 | 959.2 |
| 20260905160212 | 66 | 287 | 14.0 | 22.0 | 0.00 | 0.00 | 0.00 | 100 | 959.4 |
| 20260905160109 | 66 | 289 | 13.0 | 22.0 | 0.00 | 0.00 | 0.00 | 100 | 959.1 |
| 20260905155906 | 66 | 281 | 14.0 | 24.0 | 0.00 | 0.00 | 0.00 | 100 | 959.3 |
| 20260905155703 | 66 | 281 | 15.0 | 25.0 | 0.00 | 0.00 | 0.00 | 100 | 959.3 |
| 20260905155602 | 66 | 283 | 15.0 | 25.0 | 0.00 | 0.00 | 0.00 | 100 | 959.1 |
| 20260905155500 | 66 | 285 | 14.0 | 25.0 | 0.00 | 0.00 | 0.00 | 100 | 959.2 |
| 20260905155257 | 66 | 288 | 14.0 | 24.0 | 0.00 | 0.00 | 0.00 | 100 | 959.3 |
| 20260905155054 | 66 | 289 | 13.0 | 25.0 | 0.00 | 0.00 | 0.00 | 100 | 959.0 |
| 20260905154940 | 66 | 289 | 13.0 | 25.0 | 0.00 | 0.00 | 0.00 | 100 | 959.2 |
| 20260905154837 | 66 | 288 | 13.0 | 25.0 | 0.00 | 0.00 | 0.00 | 100 | 959.1 |
| 20260905154634 | 66 | 285 | 12.0 | 24.0 | 0.00 | 0.00 | 0.00 | 100 | 959.0 |
| 20260905154432 | 66 | 285 | 13.0 | 24.0 | 0.00 | 0.00 | 0.00 | 100 | 959.1 |
| 20260905154332 | 66 | 289 | 15.0 | 27.0 | 0.00 | 0.00 | 0.00 | 100 | 959.1 |
| 20260905154229 | 66 | 290 | 15.0 | 29.0 | 0.00 | 0.00 | 0.00 | 100 | 959.0 |
| 20260905154027 | 66 | 289 | 14.0 | 29.0 | 0.00 | 0.00 | 0.00 | 100 | 959.0 |
| 20260905153823 | 66 | 285 | 13.0 | 29.0 | 0.00 | 0.00 | 0.00 | 100 | 959.0 |
| 20260905153723 | 65 | 285 | 13.0 | 27.0 | 0.00 | 0.00 | 0.00 | 100 | 959.1 |
| 20260905153620 | 65 | 285 | 12.0 | 27.0 | 0.00 | 0.00 | 0.00 | 100 | 959.1 |
| 20260905153416 | 65 | 286 | 10.0 | 27.0 | 0.00 | 0.00 | 0.00 | 100 | 958.9 |
| 20260905153213 | 65 | 282 | 10.0 | 17.0 | 0.00 | 0.00 | 0.00 | 100 | 959.1 |
| 20260905153010 | 65 | 276 | 8.0 | 19.0 | 0.00 | 0.00 | 0.00 | 100 | 959.1 |
| 20260905152806 | 66 | 282 | 11.0 | 23.0 | 0.00 | 0.00 | 0.00 | 100 | 959.0 |
| 20260905152603 | 66 | 289 | 14.0 | 24.0 | 0.00 | 0.00 | 0.00 | 100 | 959.1 |
| 20260905152503 | 66 | 289 | 14.0 | 24.0 | 0.00 | 0.00 | 0.00 | 100 | 958.9 |
| 20260905152400 | 66 | 290 | 12.0 | 24.0 | 0.00 | 0.00 | 0.00 | 100 | 959.0 |
| 20260905152157 | 66 | 285 | 8.0 | 16.0 | 0.00 | 0.00 | 0.00 | 100 | 959.0 |
| 20260905151953 | 66 | 285 | 9.0 | 15.0 | 0.00 | 0.00 | 0.00 | 100 | 959.0 |
| 20260905151750 | 66 | 290 | 10.0 | 18.0 | 0.00 | 0.00 | 0.00 | 100 | 959.0 |
| 20260905151546 | 66 | 294 | 11.0 | 18.0 | 0.00 | 0.00 | 0.00 | 100 | 958.9 |
| 20260905151344 | 65 | 292 | 11.0 | 18.0 | 0.00 | 0.00 | 0.00 | 100 | 958.9 |
| 20260905151244 | 66 | 288 | 11.0 | 18.0 | 0.00 | 0.00 | 0.00 | 100 | 959.0 |
| 20260905151141 | 66 | 281 | 10.0 | 18.0 | 0.00 | 0.00 | 0.00 | 100 | 959.0 |
| 20260905150938 | 66 | 284 | 9.0 | 18.0 | 0.00 | 0.00 | 0.00 | 100 | 958.9 |
| 20260905150735 | 66 | 291 | 10.0 | 17.0 | 0.00 | 0.00 | 0.00 | 100 | 958.9 |
| 20260905150634 | 66 | 295 | 10.0 | 17.0 | 0.00 | 0.00 | 0.00 | 100 | 959.0 |
| 20260905150532 | 65 | 295 | 10.0 | 17.0 | 0.00 | 0.00 | 0.00 | 100 | 959.0 |
| 20260905150329 | 65 | 289 | 9.0 | 16.0 | 0.00 | 0.00 | 0.00 | 100 | 959.0 |
| 20260905150126 | 66 | 282 | 7.0 | 14.0 | 0.00 | 0.00 | 0.00 | 100 | 959.0 |
| 20260905150025 | 66 | 278 | 7.0 | 14.0 | 0.00 | 0.00 | 0.00 | 100 | 959.0 |
| 20260905145923 | 66 | 281 | 7.0 | 16.0 | 0.00 | 0.00 | 0.00 | 100 | 959.0 |
| 20260905145720 | 66 | 255 | 6.0 | 19.0 | 0.00 | 0.00 | 0.00 | 100 | 959.0 |
| 20260905145517 | 66 | 244 | 5.0 | 19.0 | 0.00 | 0.00 | 0.00 | 100 | 958.9 |
| 20260905145416 | 66 | 250 | 5.0 | 14.0 | 0.00 | 0.00 | 0.00 | 100 | 958.8 |
| 20260905145314 | 66 | 256 | 5.0 | 14.0 | 0.00 | 0.00 | 0.00 | 100 | 958.8 |
| 20260905145110 | 67 | 271 | 5.0 | 10.0 | 0.00 | 0.00 | 0.00 | 100 | 958.9 |
| 20260905144907 | 67 | 273 | 5.0 | 13.0 | 0.00 | 0.00 | 0.00 | 100 | 959.0 |
| 20260905144806 | 66 | 267 | 5.0 | 19.0 | 0.00 | 0.00 | 0.00 | 100 | 958.9 |
| 20260905144704 | 66 | 259 | 5.0 | 19.0 | 0.00 | 0.00 | 0.00 | 100 | 958.9 |
| 20260905144500 | 66 | 260 | 5.0 | 19.0 | 0.00 | 0.00 | 0.00 | 100 | 958.8 |
| 20260905144257 | 67 | 274 | 6.0 | 17.0 | 0.00 | 0.00 | 0.00 | 100 | 958.9 |
| 20260905144157 | 67 | 286 | 6.0 | 16.0 | 0.00 | 0.00 | 0.00 | 100 | 958.9 |
| 20260905144055 | 66 | 290 | 7.0 | 13.0 | 0.00 | 0.00 | 0.00 | 100 | 958.9 |
| 20260905143852 | 66 | 288 | 8.0 | 13.0 | 0.00 | 0.00 | 0.00 | 100 | 958.9 |
| 20260905143648 | 66 | 287 | 7.0 | 16.0 | 0.00 | 0.00 | 0.00 | 100 | 958.9 |
| 20260905143548 | 66 | 285 | 7.0 | 16.0 | 0.00 | 0.00 | 0.00 | 100 | 958.9 |
| 20260905143445 | 65 | 288 | 7.0 | 16.0 | 0.00 | 0.00 | 0.00 | 100 | 959.0 |
| 20260905143242 | 65 | 288 | 10.0 | 19.0 | 0.00 | 0.00 | 0.00 | 100 | 958.9 |
| 20260905143039 | 65 | 287 | 12.0 | 19.0 | 0.00 | 0.00 | 0.00 | 100 | 959.0 |
| 20260905142939 | 65 | 286 | 12.0 | 19.0 | 0.00 | 0.00 | 0.00 | 100 | 958.9 |
| 20260905142837 | 65 | 288 | 12.0 | 17.0 | 0.00 | 0.00 | 0.00 | 100 | 958.9 |
| 20260905142634 | 65 | 289 | 12.0 | 20.0 | 0.00 | 0.00 | 0.00 | 100 | 958.9 |
| 20260905142431 | 65 | 283 | 12.0 | 20.0 | 0.00 | 0.00 | 0.00 | 100 | 959.0 |
| 20260905142330 | 65 | 282 | 12.0 | 19.0 | 0.00 | 0.00 | 0.00 | 100 | 958.9 |
| 20260905142228 | 65 | 281 | 9.0 | 19.0 | 0.00 | 0.00 | 0.00 | 100 | 958.9 |
| 20260905142025 | 65 | 281 | 8.0 | 18.0 | 0.00 | 0.00 | 0.00 | 100 | 959.0 |
| 20260905141822 | 65 | 290 | 9.0 | 18.0 | 0.00 | 0.00 | 0.00 | 100 | 959.1 |
| 20260905141722 | 65 | 290 | 10.0 | 18.0 | 0.00 | 0.00 | 0.00 | 100 | 959.1 |
| 20260905141619 | 65 | 288 | 9.0 | 15.0 | 0.00 | 0.00 | 0.00 | 100 | 959.0 |
| 20260905141416 | 66 | 263 | 9.0 | 18.0 | 0.00 | 0.00 | 0.00 | 100 | 959.2 |
| 20260905141213 | 65 | 277 | 9.0 | 18.0 | 0.00 | 0.00 | 0.00 | 100 | 959.1 |
| 20260905141112 | 65 | 279 | 8.0 | 18.0 | 0.00 | 0.00 | 0.00 | 100 | 959.1 |
| 20260905141010 | 65 | 281 | 6.0 | 15.0 | 0.00 | 0.00 | 0.00 | 100 | 959.1 |
| 20260905140808 | 65 | 253 | 4.0 | 12.0 | 0.00 | 0.00 | 0.00 | 100 | 959.2 |
| 20260905140604 | 65 | 280 | 6.0 | 12.0 | 0.00 | 0.00 | 0.00 | 100 | 959.2 |
| 20260905140503 | 65 | 282 | 6.0 | 14.0 | 0.00 | 0.00 | 0.00 | 100 | 959.2 |
| 20260905140401 | 65 | 285 | 8.0 | 14.0 | 0.00 | 0.00 | 0.00 | 100 | 959.2 |
| 20260905140158 | 65 | 290 | 13.0 | 22.0 | 0.00 | 0.00 | 0.00 | 100 | 959.1 |
| 20260905135954 | 66 | 293 | 13.0 | 22.0 | 0.00 | 0.00 | 0.00 | 100 | 958.9 |
| 20260905135854 | 66 | 289 | 12.0 | 22.0 | 0.00 | 0.00 | 0.00 | 100 | 958.9 |
| 20260905135751 | 66 | 285 | 12.0 | 22.0 | 0.00 | 0.00 | 0.00 | 100 | 958.9 |
| 20260905135548 | 65 | 283 | 15.0 | 24.0 | 0.00 | 0.00 | 0.00 | 100 | 959.1 |
| 20260905135345 | 65 | 290 | 15.0 | 24.0 | 0.00 | 0.00 | 0.00 | 100 | 959.0 |
| 20260905135142 | 65 | 289 | 14.0 | 24.0 | 0.00 | 0.00 | 0.00 | 100 | 958.9 |
| 20260905134939 | 65 | 282 | 11.0 | 23.0 | 0.00 | 0.00 | 0.00 | 100 | 959.1 |
| 20260905134736 | 65 | 288 | 11.0 | 19.0 | 0.00 | 0.00 | 0.00 | 100 | 959.1 |
| 20260905134533 | 65 | 294 | 10.0 | 19.0 | 0.00 | 0.00 | 0.00 | 100 | 959.1 |
| 20260905134330 | 65 | 292 | 8.0 | 15.0 | 0.00 | 0.00 | 0.00 | 100 | 959.2 |
| 20260905134126 | 64 | 291 | 9.0 | 17.0 | 0.00 | 0.00 | 0.00 | 100 | 959.1 |
| 20260905134026 | 65 | 289 | 9.0 | 17.0 | 0.00 | 0.00 | 0.00 | 100 | 959.0 |
| 20260905133924 | 65 | 286 | 11.0 | 20.0 | 0.00 | 0.00 | 0.00 | 100 | 959.2 |
| 20260905133721 | 65 | 289 | 11.0 | 20.0 | 0.00 | 0.00 | 0.00 | 100 | 959.2 |
| 20260905133518 | 65 | 289 | 10.0 | 19.0 | 0.00 | 0.00 | 0.00 | 100 | 959.1 |
| 20260905133417 | 65 | 290 | 10.0 | 19.0 | 0.00 | 0.00 | 0.00 | 100 | 959.1 |
| 20260905133314 | 65 | 290 | 10.0 | 19.0 | 0.00 | 0.00 | 0.00 | 100 | 959.2 |
| 20260905133111 | 65 | 288 | 11.0 | 19.0 | 0.00 | 0.00 | 0.00 | 100 | 959.1 |
| 20260905132908 | 65 | 287 | 11.0 | 19.0 | 0.00 | 0.00 | 0.00 | 100 | 959.2 |
| 20260905132705 | 66 | 287 | 8.0 | 15.0 | 0.00 | 0.00 | 0.00 | 100 | 959.0 |
| 20260905132502 | 66 | 286 | 6.0 | 16.0 | 0.00 | 0.00 | 0.00 | 100 | 959.2 |
| 20260905132258 | 66 | 262 | 5.0 | 23.0 | 0.00 | 0.00 | 0.00 | 100 | 959.2 |
| 20260905132158 | 67 | 251 | 4.0 | 23.0 | 0.00 | 0.00 | 0.00 | 100 | 959.0 |
| 20260905131905 | 66 | 265 | 8.0 | 23.0 | 0.00 | 0.00 | 0.00 | 100 | 959.3 |
| 20260905131702 | 66 | 264 | 9.0 | 21.0 | 0.00 | 0.00 | 0.00 | 100 | 959.2 |
| 20260905131602 | 66 | 253 | 8.0 | 21.0 | 0.00 | 0.00 | 0.00 | 100 | 959.2 |
| 20260905131459 | 66 | 261 | 7.0 | 21.0 | 0.00 | 0.00 | 0.00 | 100 | 959.3 |
| 20260905131256 | 66 | 282 | 10.0 | 21.0 | 0.00 | 0.00 | 0.00 | 100 | 959.3 |
| 20260905131053 | 65 | 292 | 11.0 | 21.0 | 0.00 | 0.00 | 0.00 | 100 | 959.2 |
| 20260905130952 | 65 | 292 | 9.0 | 21.0 | 0.00 | 0.00 | 0.00 | 100 | 959.2 |
| 20260905130850 | 65 | 285 | 7.0 | 16.0 | 0.00 | 0.00 | 0.00 | 100 | 959.1 |
| 20260905130646 | 66 | 268 | 6.0 | 14.0 | 0.00 | 0.00 | 0.00 | 100 | 959.2 |
| 20260905130443 | 66 | 281 | 8.0 | 14.0 | 0.00 | 0.00 | 0.00 | 100 | 959.1 |
| 20260905130329 | 65 | 286 | 9.0 | 16.0 | 0.00 | 0.00 | 0.00 | 100 | 959.2 |
| 20260905130226 | 65 | 289 | 10.0 | 16.0 | 0.00 | 0.00 | 0.00 | 100 | 959.2 |
| 20260905130023 | 65 | 290 | 12.0 | 21.0 | 0.00 | 0.00 | 0.00 | 100 | 959.1 |
| 20260905125820 | 65 | 287 | 11.0 | 21.0 | 0.00 | 0.00 | 0.00 | 100 | 958.9 |
| 20260905125719 | 65 | 288 | 11.0 | 19.0 | 0.00 | 0.00 | 0.00 | 100 | 959.2 |
| 20260905125617 | 65 | 289 | 10.0 | 19.0 | 0.00 | 0.00 | 0.00 | 100 | 959.2 |
| 20260905125414 | 64 | 287 | 9.0 | 19.0 | 0.00 | 0.00 | 0.00 | 100 | 959.1 |
| 20260905125210 | 65 | 266 | 5.0 | 16.0 | 0.00 | 0.00 | 0.00 | 100 | 959.2 |
| 20260905125110 | 66 | 264 | 6.0 | 16.0 | 0.00 | 0.00 | 0.00 | 100 | 959.2 |
| 20260905125007 | 66 | 278 | 6.0 | 16.0 | 0.00 | 0.00 | 0.00 | 100 | 959.3 |
| 20260905124804 | 65 | 285 | 6.0 | 16.0 | 0.00 | 0.00 | 0.00 | 100 | 959.1 |
| 20260905124601 | 65 | 283 | 6.0 | 18.0 | 0.00 | 0.00 | 0.00 | 100 | 959.2 |
| 20260905124500 | 65 | 286 | 6.0 | 18.0 | 0.00 | 0.00 | 0.00 | 100 | 959.3 |
| 20260905124358 | 65 | 289 | 8.0 | 18.0 | 0.00 | 0.00 | 0.00 | 100 | 959.3 |
| 20260905124154 | 65 | 290 | 9.0 | 20.0 | 0.00 | 0.00 | 0.00 | 100 | 959.3 |
| 20260905123951 | 65 | 284 | 7.0 | 20.0 | 0.00 | 0.00 | 0.00 | 100 | 959.1 |
| 20260905123851 | 66 | 258 | 5.0 | 14.0 | 0.00 | 0.00 | 0.00 | 100 | 959.2 |
| 20260905123748 | 66 | 266 | 5.0 | 13.0 | 0.00 | 0.00 | 0.00 | 100 | 959.4 |
| 20260905123545 | 66 | 274 | 4.0 | 13.0 | 0.00 | 0.00 | 0.00 | 100 | 959.4 |
| 20260905123342 | 67 | 288 | 4.0 | 11.0 | 0.00 | 0.00 | 0.00 | 100 | 959.2 |
| 20260905123139 | 67 | 299 | 3.0 | 11.0 | 0.00 | 0.00 | 0.00 | 100 | 959.1 |
| 20260905122936 | 66 | 292 | 4.0 | 12.0 | 0.00 | 0.00 | 0.00 | 100 | 959.2 |
| 20260905122732 | 65 | 284 | 6.0 | 13.0 | 0.00 | 0.00 | 0.00 | 100 | 959.2 |
| 20260905122632 | 66 | 283 | 6.0 | 15.0 | 0.00 | 0.00 | 0.00 | 100 | 959.3 |
| 20260905122529 | 66 | 288 | 6.0 | 15.0 | 0.00 | 0.00 | 0.00 | 100 | 959.4 |
| 20260905122326 | 66 | 305 | 5.0 | 15.0 | 0.00 | 0.00 | 0.00 | 100 | 959.2 |
| 20260905122123 | 66 | 270 | 4.0 | 10.0 | 0.00 | 0.00 | 0.00 | 100 | 959.3 |
| 20260905122023 | 67 | 235 | 3.0 | 10.0 | 0.00 | 0.00 | 0.00 | 100 | 959.4 |
| 20260905121919 | 67 | 255 | 5.0 | 14.0 | 0.00 | 0.00 | 0.00 | 100 | 959.4 |
| 20260905121716 | 66 | 284 | 8.0 | 17.0 | 0.00 | 0.00 | 0.00 | 100 | 959.4 |
| 20260905121513 | 65 | 275 | 10.0 | 17.0 | 0.00 | 0.00 | 0.00 | 100 | 959.2 |
| 20260905121412 | 65 | 268 | 7.0 | 17.0 | 0.00 | 0.00 | 0.00 | 100 | 959.3 |
| 20260905121310 | 66 | 257 | 5.0 | 16.0 | 0.00 | 0.00 | 0.00 | 100 | 959.4 |
| 20260905121106 | 67 | 225 | 4.0 | 16.0 | 0.00 | 0.00 | 0.00 | 100 | 959.4 |
| 20260905120903 | 67 | 223 | 2.0 | 16.0 | 0.00 | 0.00 | 0.00 | 100 | 959.2 |
| 20260905120659 | 67 | 249 | 2.0 | 10.0 | 0.00 | 0.00 | 0.00 | 100 | 959.3 |
| 20260905120456 | 67 | 237 | 3.0 | 10.0 | 0.00 | 0.00 | 0.00 | 100 | 959.3 |
| 20260905120253 | 66 | 265 | 4.0 | 10.0 | 0.00 | 0.00 | 0.00 | 100 | 959.4 |
| 20260905120152 | 66 | 272 | 5.0 | 12.0 | 0.00 | 0.00 | 0.00 | 100 | 959.3 |
| 20260905120050 | 65 | 286 | 6.0 | 15.0 | 0.00 | 0.00 | 0.00 | 100 | 959.3 |
| 20260905115846 | 64 | 285 | 9.0 | 17.0 | 0.00 | 0.00 | 0.00 | 100 | 959.3 |
| 20260905115643 | 64 | 275 | 5.0 | 17.0 | 0.00 | 0.00 | 0.00 | 100 | 959.2 |
| 20260905115543 | 65 | 258 | 3.0 | 18.0 | 0.00 | 0.00 | 0.00 | 100 | 959.2 |
| 20260905115440 | 66 | 264 | 2.0 | 7.0 | 0.00 | 0.00 | 0.00 | 100 | 959.2 |
| 20260905115236 | 65 | 299 | 5.0 | 14.0 | 0.00 | 0.00 | 0.00 | 100 | 959.3 |
| 20260905115034 | 64 | 287 | 8.0 | 20.0 | 0.00 | 0.00 | 0.00 | 100 | 959.4 |
| 20260905114933 | 64 | 284 | 9.0 | 20.0 | 0.00 | 0.00 | 0.00 | 100 | 959.3 |
| 20260905114831 | 65 | 270 | 9.0 | 20.0 | 0.00 | 0.00 | 0.00 | 100 | 959.2 |
| 20260905114628 | 65 | 258 | 6.0 | 15.0 | 0.00 | 0.00 | 0.00 | 100 | 959.3 |
| 20260905114424 | 65 | 254 | 8.0 | 16.0 | 0.00 | 0.00 | 0.00 | 100 | 959.3 |
| 20260905114324 | 65 | 248 | 7.0 | 17.0 | 0.00 | 0.00 | 0.00 | 100 | 959.3 |
| 20260905114222 | 66 | 251 | 5.0 | 17.0 | 0.00 | 0.00 | 0.00 | 100 | 959.3 |
| 20260905114019 | 66 | 249 | 3.0 | 12.0 | 0.00 | 0.00 | 0.00 | 100 | 959.3 |
| 20260905113815 | 66 | 247 | 4.0 | 16.0 | 0.00 | 0.00 | 0.00 | 100 | 959.3 |
| 20260905113715 | 66 | 261 | 4.0 | 16.0 | 0.00 | 0.00 | 0.00 | 100 | 959.3 |
| 20260905113613 | 66 | 265 | 4.0 | 16.0 | 0.00 | 0.00 | 0.00 | 100 | 959.3 |
| 20260905113410 | 66 | 266 | 3.0 | 8.0 | 0.00 | 0.00 | 0.00 | 100 | 959.2 |
| 20260905113206 | 66 | 264 | 3.0 | 10.0 | 0.00 | 0.00 | 0.00 | 100 | 959.3 |
| 20260905113106 | 66 | 281 | 4.0 | 10.0 | 0.00 | 0.00 | 0.00 | 100 | 959.3 |
| 20260905113004 | 65 | 279 | 5.0 | 10.0 | 0.00 | 0.00 | 0.00 | 100 | 959.3 |
| 20260905112800 | 65 | 285 | 5.0 | 11.0 | 0.00 | 0.00 | 0.00 | 100 | 959.4 |
| 20260905112557 | 65 | 242 | 4.0 | 12.0 | 0.00 | 0.00 | 0.00 | 100 | 959.5 |
| 20260905112457 | 64 | 259 | 5.0 | 14.0 | 0.00 | 0.00 | 0.00 | 100 | 959.4 |
| 20260905112355 | 64 | 261 | 6.0 | 14.0 | 0.00 | 0.00 | 0.00 | 100 | 959.4 |
| 20260905112152 | 63 | 291 | 9.0 | 16.0 | 0.00 | 0.00 | 0.00 | 100 | 959.4 |
| 20260905111949 | 63 | 303 | 10.0 | 16.0 | 0.00 | 0.00 | 0.00 | 100 | 959.6 |
| 20260905111849 | 63 | 302 | 7.0 | 16.0 | 0.00 | 0.00 | 0.00 | 100 | 959.3 |
| 20260905111747 | 64 | 306 | 6.0 | 16.0 | 0.00 | 0.00 | 0.00 | 100 | 959.4 |
| 20260905111543 | 64 | 306 | 7.0 | 19.0 | 0.00 | 0.00 | 0.00 | 100 | 959.5 |
| 20260905111339 | 63 | 300 | 10.0 | 19.0 | 0.00 | 0.00 | 0.00 | 100 | 959.6 |
| 20260905111238 | 64 | 297 | 8.0 | 19.0 | 0.00 | 0.00 | 0.00 | 100 | 959.3 |
| 20260905111136 | 64 | 289 | 6.0 | 17.0 | 0.00 | 0.00 | 0.00 | 100 | 959.5 |
| 20260905110932 | 64 | 285 | 7.0 | 20.0 | 0.00 | 0.00 | 0.00 | 100 | 959.5 |
| 20260905110729 | 64 | 278 | 9.0 | 26.0 | 0.00 | 0.00 | 0.00 | 100 | 959.5 |
| 20260905110629 | 64 | 267 | 8.0 | 26.0 | 0.00 | 0.00 | 0.00 | 100 | 959.3 |
| 20260905110527 | 65 | 256 | 5.0 | 26.0 | 0.00 | 0.00 | 0.00 | 100 | 959.3 |
| 20260905110324 | 66 | 299 | 5.0 | 13.0 | 0.00 | 0.00 | 0.00 | 100 | 959.4 |
| 20260905110120 | 63 | 316 | 7.0 | 13.0 | 0.00 | 0.00 | 0.00 | 100 | 959.5 |
| 20260905110019 | 64 | 331 | 9.0 | 16.0 | 0.00 | 0.00 | 0.00 | 100 | 959.4 |
| 20260905105917 | 64 | 329 | 9.0 | 16.0 | 0.00 | 0.00 | 0.00 | 100 | 959.4 |
| 20260905105714 | 63 | 334 | 9.0 | 19.0 | 0.00 | 0.00 | 0.00 | 100 | 959.4 |
| 20260905105511 | 63 | 328 | 10.0 | 19.0 | 0.00 | 0.00 | 0.00 | 100 | 959.2 |
| 20260905105410 | 63 | 333 | 10.0 | 16.0 | 0.00 | 0.00 | 0.00 | 100 | 959.4 |
| 20260905105308 | 63 | 326 | 10.0 | 16.0 | 0.00 | 0.00 | 0.00 | 100 | 959.3 |
| 20260905105105 | 63 | 327 | 10.0 | 16.0 | 0.00 | 0.00 | 0.00 | 100 | 959.4 |
| 20260905104902 | 62 | 325 | 11.0 | 21.0 | 0.00 | 0.00 | 0.00 | 100 | 959.3 |
| 20260905104801 | 63 | 329 | 10.0 | 21.0 | 0.00 | 0.00 | 0.00 | 100 | 959.3 |
| 20260905104659 | 63 | 324 | 9.0 | 21.0 | 0.00 | 0.00 | 0.00 | 100 | 959.0 |
| 20260905104456 | 63 | 304 | 6.0 | 13.0 | 0.00 | 0.00 | 0.00 | 100 | 959.2 |
| 20260905104254 | 63 | 309 | 8.0 | 17.0 | 0.00 | 0.00 | 0.00 | 100 | 959.3 |
| 20260905104153 | 63 | 321 | 9.0 | 17.0 | 0.00 | 0.00 | 0.00 | 100 | 959.4 |
| 20260905104051 | 63 | 329 | 9.0 | 17.0 | 0.00 | 0.00 | 0.00 | 100 | 959.3 |
| 20260905103847 | 63 | 344 | 5.0 | 14.0 | 0.00 | 0.00 | 0.00 | 100 | 959.4 |
| 20260905103645 | 64 | 343 | 3.0 | 9.0 | 0.00 | 0.00 | 0.00 | 100 | 959.4 |
| 20260905103544 | 65 | 282 | 4.0 | 9.0 | 0.00 | 0.00 | 0.00 | 100 | 959.3 |
| 20260905103442 | 65 | 263 | 4.0 | 13.0 | 0.00 | 0.00 | 0.00 | 100 | 959.3 |
| 20260905103238 | 64 | 263 | 4.0 | 13.0 | 0.00 | 0.00 | 0.00 | 100 | 959.3 |
| 20260905103035 | 64 | 228 | 2.0 | 10.0 | 0.00 | 0.00 | 0.00 | 100 | 959.3 |
| 20260905102936 | 64 | 222 | 2.0 | 10.0 | 0.00 | 0.00 | 0.00 | 100 | 959.5 |
| 20260905102832 | 64 | 228 | 3.0 | 10.0 | 0.00 | 0.00 | 0.00 | 100 | 959.4 |
| 20260905102629 | 63 | 237 | 4.0 | 10.0 | 0.00 | 0.00 | 0.00 | 100 | 959.4 |
| 20260905102413 | 63 | 237 | 3.0 | 16.0 | 0.00 | 0.00 | 0.00 | 100 | 959.3 |
| 20260905102312 | 62 | 230 | 3.0 | 16.0 | 0.00 | 0.00 | 0.00 | 100 | 959.3 |
| 20260905102210 | 62 | 220 | 2.0 | 12.0 | 0.00 | 0.00 | 0.00 | 100 | 959.3 |
| 20260905102006 | 62 | 223 | 2.0 | 11.0 | 0.00 | 0.00 | 0.00 | 100 | 959.3 |
| 20260905101803 | 62 | 236 | 3.0 | 17.0 | 0.00 | 0.00 | 0.00 | 100 | 959.4 |
| 20260905101703 | 61 | 229 | 4.0 | 17.0 | 0.00 | 0.00 | 0.00 | 100 | 959.4 |
| 20260905101600 | 61 | 224 | 3.0 | 17.0 | 0.00 | 0.00 | 0.00 | 100 | 959.4 |
| 20260905101357 | 61 | 243 | 4.0 | 13.0 | 0.00 | 0.00 | 0.00 | 100 | 959.4 |
| 20260905101153 | 61 | 249 | 5.0 | 16.0 | 0.00 | 0.00 | 0.00 | 100 | 959.3 |
| 20260905101053 | 61 | 253 | 6.0 | 16.0 | 0.00 | 0.00 | 0.00 | 100 | 959.3 |
| 20260905100950 | 61 | 262 | 7.0 | 16.0 | 0.00 | 0.00 | 0.00 | 100 | 959.4 |
| 20260905100747 | 61 | 269 | 8.0 | 18.0 | 0.00 | 0.00 | 0.00 | 100 | 959.3 |
| 20260905100544 | 61 | 269 | 5.0 | 18.0 | 0.00 | 0.00 | 0.00 | 100 | 959.3 |
| 20260905100444 | 61 | 251 | 3.0 | 18.0 | 0.00 | 0.00 | 0.00 | 100 | 959.4 |
| 20260905100342 | 61 | 230 | 2.0 | 10.0 | 0.00 | 0.00 | 0.00 | 100 | 959.3 |
| 20260905100138 | 61 | 257 | 4.0 | 17.0 | 0.00 | 0.00 | 0.00 | 100 | 959.4 |
| 20260905095935 | 61 | 269 | 8.0 | 18.0 | 0.00 | 0.00 | 0.00 | 100 | 959.4 |
| 20260905095834 | 61 | 264 | 10.0 | 20.0 | 0.00 | 0.00 | 0.00 | 100 | 959.2 |
| 20260905095731 | 61 | 260 | 10.0 | 20.0 | 0.00 | 0.00 | 0.00 | 100 | 959.3 |
| 20260905095528 | 61 | 249 | 7.0 | 22.0 | 0.00 | 0.00 | 0.00 | 100 | 959.3 |
| 20260905095325 | 61 | 236 | 5.0 | 22.0 | 0.00 | 0.00 | 0.00 | 100 | 959.3 |
| 20260905095224 | 61 | 235 | 5.0 | 22.0 | 0.00 | 0.00 | 0.00 | 100 | 959.2 |
| 20260905095122 | 62 | 222 | 5.0 | 26.0 | 0.00 | 0.00 | 0.00 | 100 | 959.2 |
| 20260905094918 | 62 | 243 | 5.0 | 29.0 | 0.00 | 0.00 | 0.00 | 100 | 959.3 |
| 20260905094715 | 62 | 246 | 5.0 | 29.0 | 0.00 | 0.00 | 0.00 | 100 | 959.1 |
| 20260905094512 | 63 | 235 | 2.0 | 10.0 | 0.00 | 0.00 | 0.00 | 100 | 959.2 |
| 20260905094308 | 62 | 235 | 3.0 | 16.0 | 0.00 | 0.00 | 0.00 | 100 | 959.5 |
| 20260905094105 | 62 | 238 | 4.0 | 16.0 | 0.00 | 0.00 | 0.00 | 100 | 959.4 |
| 20260905094004 | 62 | 239 | 3.0 | 16.0 | 0.00 | 0.00 | 0.00 | 100 | 959.4 |
| 20260905093901 | 62 | 233 | 2.0 | 10.0 | 0.00 | 0.00 | 0.00 | 100 | 959.5 |
| 20260905093658 | 62 | 241 | 3.0 | 13.0 | 0.00 | 0.00 | 0.00 | 100 | 959.5 |
| 20260905093455 | 61 | 260 | 5.0 | 12.0 | 0.00 | 0.00 | 0.00 | 100 | 959.4 |
| 20260905093354 | 61 | 263 | 5.0 | 12.0 | 0.00 | 0.00 | 0.00 | 100 | 959.3 |
| 20260905093252 | 61 | 267 | 5.0 | 12.0 | 0.00 | 0.00 | 0.00 | 100 | 959.3 |
| 20260905093049 | 62 | 232 | 4.0 | 14.0 | 0.00 | 0.00 | 0.00 | 100 | 959.3 |
| 20260905092845 | 64 | 223 | 2.0 | 14.0 | 0.00 | 0.00 | 0.00 | 100 | 959.1 |
| 20260905092744 | 64 | 238 | 1.0 | 8.0 | 0.00 | 0.00 | 0.00 | 100 | 959.4 |
| 20260905092642 | 64 | 237 | 1.0 | 6.0 | 0.00 | 0.00 | 0.00 | 100 | 959.3 |
| 20260905092439 | 64 | 221 | 1.0 | 5.0 | 0.00 | 0.00 | 0.00 | 100 | 959.3 |
| 20260905092236 | 64 | 218 | 1.0 | 5.0 | 0.00 | 0.00 | 0.00 | 100 | 959.3 |
| 20260905092135 | 64 | 241 | 2.0 | 4.0 | 0.00 | 0.00 | 0.00 | 100 | 959.3 |
| 20260905092032 | 64 | 245 | 2.0 | 5.0 | 0.00 | 0.00 | 0.00 | 100 | 959.4 |
| 20260905091829 | 63 | 244 | 2.0 | 7.0 | 0.00 | 0.00 | 0.00 | 100 | 959.4 |
| 20260905091626 | 64 | 188 | 2.0 | 7.0 | 0.00 | 0.00 | 0.00 | 100 | 959.4 |
| 20260905091525 | 63 | 179 | 2.0 | 7.0 | 0.00 | 0.00 | 0.00 | 100 | 959.4 |
| 20260905091423 | 62 | 184 | 2.0 | 7.0 | 0.00 | 0.00 | 0.00 | 100 | 959.4 |
| 20260905091219 | 62 | 235 | 1.0 | 4.0 | 0.00 | 0.00 | 0.00 | 100 | 959.5 |
| 20260905091017 | 61 | 222 | 1.0 | 4.0 | 0.00 | 0.00 | 0.00 | 100 | 959.5 |
| 20260905090916 | 61 | 233 | 1.0 | 4.0 | 0.00 | 0.00 | 0.00 | 100 | 959.5 |
| 20260905090813 | 61 | 220 | 1.0 | 4.0 | 0.00 | 0.00 | 0.00 | 100 | 959.4 |
| 20260905090610 | 60 | 175 | 2.0 | 6.0 | 0.00 | 0.00 | 0.00 | 100 | 959.3 |
| 20260905090407 | 60 | 145 | 3.0 | 6.0 | 0.00 | 0.00 | 0.00 | 100 | 959.3 |
| 20260905090306 | 60 | 140 | 2.0 | 6.0 | 0.00 | 0.00 | 0.00 | 100 | 959.3 |
| 20260905090204 | 60 | 143 | 2.0 | 5.0 | 0.00 | 0.00 | 0.00 | 100 | 959.3 |
| 20260905090001 | 60 | 0 | 1.0 | 3.0 | 0.00 | 0.00 | 0.00 | 100 | 959.4 |
| 20260905085757 | 60 | 0 | 1.0 | 3.0 | 0.00 | 0.00 | 0.00 | 100 | 959.6 |
| 20260905085657 | 60 | 0 | 1.0 | 4.0 | 0.00 | 0.00 | 0.00 | 100 | 959.6 |
| 20260905085554 | 60 | 0 | 1.0 | 4.0 | 0.00 | 0.00 | 0.00 | 100 | 959.8 |
| 20260905085351 | 60 | 0 | 2.0 | 7.0 | 0.00 | 0.00 | 0.00 | 100 | 959.6 |
| 20260905085147 | 60 | 178 | 3.0 | 10.0 | 0.00 | 0.00 | 0.00 | 100 | 959.6 |
| 20260905085047 | 60 | 179 | 2.0 | 10.0 | 0.00 | 0.00 | 0.00 | 100 | 959.5 |
| 20260905084945 | 60 | 185 | 2.0 | 10.0 | 0.00 | 0.00 | 0.00 | 100 | 959.6 |
| 20260905084742 | 60 | 0 | 1.0 | 5.0 | 0.00 | 0.00 | 0.00 | 100 | 959.4 |
| 20260905084539 | 60 | 219 | 1.0 | 4.0 | 0.00 | 0.00 | 0.00 | 100 | 959.5 |
| 20260905084438 | 60 | 0 | 0.0 | 4.0 | 0.00 | 0.00 | 0.00 | 100 | 959.4 |
| 20260905084336 | 60 | 0 | 1.0 | 3.0 | 0.00 | 0.00 | 0.00 | 100 | 959.4 |
| 20260905084133 | 59 | 0 | 1.0 | 5.0 | 0.00 | 0.00 | 0.00 | 100 | 959.5 |
| 20260905083930 | 59 | 178 | 2.0 | 6.0 | 0.00 | 0.00 | 0.00 | 100 | 959.5 |
| 20260905083829 | 59 | 186 | 2.0 | 6.0 | 0.00 | 0.00 | 0.00 | 100 | 959.5 |
| 20260905083726 | 59 | 185 | 1.0 | 6.0 | 0.00 | 0.00 | 0.00 | 100 | 959.5 |
| 20260905083522 | 59 | 0 | 1.0 | 3.0 | 0.00 | 0.00 | 0.00 | 100 | 959.3 |
| 20260905083319 | 59 | 0 | 1.0 | 4.0 | 0.00 | 0.00 | 0.00 | 100 | 959.5 |
| 20260905083219 | 59 | 0 | 1.0 | 4.0 | 0.00 | 0.00 | 0.00 | 100 | 959.4 |
| 20260905083116 | 59 | 0 | 1.0 | 4.0 | 0.00 | 0.00 | 0.00 | 100 | 959.4 |
| 20260905082913 | 59 | 0 | 1.0 | 6.0 | 0.00 | 0.00 | 0.00 | 100 | 959.6 |
| 20260905082710 | 59 | 220 | 2.0 | 11.0 | 0.00 | 0.00 | 0.00 | 100 | 959.5 |
| 20260905082609 | 59 | 226 | 2.0 | 11.0 | 0.00 | 0.00 | 0.00 | 100 | 959.4 |
| 20260905082506 | 59 | 237 | 2.0 | 11.0 | 0.00 | 0.00 | 0.00 | 100 | 959.4 |
| 20260905082307 | 59 | 233 | 2.0 | 9.0 | 0.00 | 0.00 | 0.00 | 100 | 959.4 |
| 20260905082100 | 58 | 225 | 2.0 | 9.0 | 0.00 | 0.00 | 0.00 | 100 | 959.4 |
| 20260905081959 | 58 | 231 | 2.0 | 9.0 | 0.00 | 0.00 | 0.00 | 100 | 959.4 |
| 20260905081857 | 58 | 231 | 2.0 | 9.0 | 0.00 | 0.00 | 0.00 | 100 | 959.5 |
| 20260905081654 | 58 | 243 | 2.0 | 8.0 | 0.00 | 0.00 | 0.00 | 100 | 959.2 |
| 20260905081451 | 58 | 236 | 2.0 | 12.0 | 0.00 | 0.00 | 0.00 | 100 | 959.0 |
| 20260905081350 | 58 | 238 | 3.0 | 12.0 | 0.00 | 0.00 | 0.00 | 100 | 958.9 |
| 20260905081247 | 58 | 230 | 3.0 | 12.0 | 0.00 | 0.00 | 0.00 | 100 | 958.9 |
| 20260905081044 | 58 | 237 | 4.0 | 12.0 | 0.00 | 0.00 | 0.00 | 100 | 959.0 |
| 20260905080841 | 58 | 257 | 5.0 | 14.0 | 0.00 | 0.00 | 0.00 | 100 | 959.1 |
| 20260905080740 | 58 | 258 | 6.0 | 15.0 | 0.00 | 0.00 | 0.00 | 100 | 959.3 |
| 20260905080638 | 58 | 260 | 7.0 | 15.0 | 0.00 | 0.00 | 0.00 | 100 | 959.1 |
| 20260905080435 | 58 | 261 | 6.0 | 15.0 | 0.00 | 0.00 | 0.00 | 100 | 959.3 |
| 20260905080232 | 58 | 259 | 5.0 | 13.0 | 0.00 | 0.00 | 0.00 | 100 | 959.3 |
| 20260905080132 | 58 | 260 | 5.0 | 13.0 | 0.00 | 0.00 | 0.00 | 100 | 959.2 |
| 20260905080030 | 58 | 249 | 4.0 | 13.0 | 0.00 | 0.00 | 0.00 | 100 | 959.1 |
| 20260905075827 | 58 | 248 | 4.0 | 12.0 | 0.00 | 0.00 | 0.00 | 100 | 959.1 |
| 20260905075623 | 58 | 261 | 4.0 | 12.0 | 0.00 | 0.00 | 0.00 | 100 | 959.2 |
| 20260905075522 | 58 | 261 | 4.0 | 12.0 | 0.00 | 0.00 | 0.00 | 100 | 959.5 |
| 20260905075420 | 58 | 258 | 3.0 | 10.0 | 0.00 | 0.00 | 0.00 | 100 | 959.7 |
| 20260905075217 | 58 | 213 | 3.0 | 10.0 | 0.00 | 0.00 | 0.00 | 100 | 959.3 |
| 20260905075014 | 58 | 162 | 2.0 | 5.0 | 0.00 | 0.00 | 0.00 | 100 | 959.3 |
| 20260905074914 | 58 | 144 | 2.0 | 5.0 | 0.00 | 0.00 | 0.00 | 100 | 959.3 |
| 20260905074812 | 58 | 146 | 2.0 | 7.0 | 0.00 | 0.00 | 0.00 | 100 | 959.3 |
| 20260905074608 | 58 | 174 | 2.0 | 8.0 | 0.00 | 0.00 | 0.00 | 100 | 959.3 |
| 20260905074355 | 58 | 219 | 2.0 | 8.0 | 0.00 | 0.00 | 0.00 | 100 | 959.0 |
| 20260905074254 | 57 | 220 | 2.0 | 8.0 | 0.00 | 0.00 | 0.00 | 100 | 959.0 |
| 20260905074152 | 57 | 0 | 1.0 | 6.0 | 0.00 | 0.00 | 0.00 | 100 | 959.0 |
| 20260905073949 | 57 | 0 | 1.0 | 5.0 | 0.00 | 0.00 | 0.00 | 100 | 959.0 |
| 20260905073747 | 57 | 219 | 2.0 | 8.0 | 0.00 | 0.00 | 0.00 | 100 | 959.0 |
| 20260905073646 | 58 | 222 | 2.0 | 8.0 | 0.00 | 0.00 | 0.00 | 100 | 959.0 |
| 20260905073543 | 58 | 226 | 2.0 | 8.0 | 0.00 | 0.00 | 0.00 | 100 | 959.0 |
| 20260905073341 | 58 | 223 | 1.0 | 6.0 | 0.00 | 0.00 | 0.00 | 100 | 959.1 |
| 20260905073137 | 58 | 0 | 1.0 | 5.0 | 0.00 | 0.00 | 0.00 | 100 | 959.0 |
| 20260905073037 | 58 | 228 | 1.0 | 5.0 | 0.00 | 0.00 | 0.00 | 100 | 959.1 |
| 20260905072933 | 58 | 241 | 2.0 | 11.0 | 0.00 | 0.00 | 0.00 | 100 | 959.1 |
| 20260905072730 | 58 | 247 | 4.0 | 11.0 | 0.00 | 0.00 | 0.00 | 100 | 959.2 |
| 20260905072526 | 58 | 242 | 4.0 | 15.0 | 0.00 | 0.00 | 0.00 | 100 | 959.1 |
| 20260905072426 | 58 | 236 | 4.0 | 15.0 | 0.00 | 0.00 | 0.00 | 100 | 959.2 |
| 20260905072323 | 58 | 227 | 2.0 | 15.0 | 0.00 | 0.00 | 0.00 | 100 | 959.0 |
| 20260905072121 | 58 | 242 | 3.0 | 12.0 | 0.00 | 0.00 | 0.00 | 100 | 959.1 |
| 20260905071917 | 58 | 274 | 5.0 | 18.0 | 0.00 | 0.00 | 0.00 | 100 | 959.0 |
| 20260905071816 | 58 | 282 | 6.0 | 18.0 | 0.00 | 0.00 | 0.00 | 100 | 959.1 |
| 20260905071714 | 58 | 279 | 9.0 | 22.0 | 0.00 | 0.00 | 0.00 | 100 | 958.9 |
| 20260905071511 | 59 | 277 | 10.0 | 22.0 | 0.00 | 0.00 | 0.00 | 100 | 959.3 |
| 20260905071308 | 58 | 278 | 12.0 | 24.0 | 0.00 | 0.00 | 0.00 | 100 | 959.5 |
| 20260905071207 | 59 | 277 | 10.0 | 24.0 | 0.00 | 0.00 | 0.00 | 100 | 959.4 |
| 20260905071105 | 59 | 283 | 11.0 | 24.0 | 0.00 | 0.00 | 0.00 | 100 | 959.4 |
| 20260905070902 | 58 | 285 | 12.0 | 25.0 | 0.00 | 0.00 | 0.00 | 100 | 959.4 |
| 20260905070659 | 58 | 282 | 12.0 | 25.0 | 0.00 | 0.00 | 0.00 | 100 | 959.2 |
| 20260905070456 | 58 | 276 | 10.0 | 18.0 | 0.00 | 0.00 | 0.00 | 100 | 958.9 |
| 20260905070253 | 58 | 277 | 9.0 | 18.0 | 0.00 | 0.00 | 0.00 | 100 | 958.8 |
| 20260905070050 | 58 | 265 | 7.0 | 17.0 | 0.00 | 0.00 | 0.00 | 100 | 958.7 |
| 20260905065950 | 58 | 259 | 7.0 | 17.0 | 0.00 | 0.00 | 0.00 | 100 | 958.6 |
| 20260905065848 | 58 | 259 | 6.0 | 17.0 | 0.00 | 0.00 | 0.00 | 100 | 958.6 |
| 20260905065644 | 57 | 269 | 6.0 | 12.0 | 0.00 | 0.00 | 0.00 | 100 | 958.6 |
| 20260905065441 | 57 | 278 | 6.0 | 12.0 | 0.00 | 0.00 | 0.00 | 100 | 958.6 |
| 20260905065341 | 57 | 279 | 6.0 | 12.0 | 0.00 | 0.00 | 0.00 | 100 | 958.6 |
| 20260905065238 | 57 | 282 | 5.0 | 10.0 | 0.00 | 0.00 | 0.00 | 100 | 958.5 |
| 20260905065035 | 57 | 279 | 4.0 | 14.0 | 0.00 | 0.00 | 0.00 | 100 | 958.6 |
| 20260905064832 | 58 | 267 | 5.0 | 14.0 | 0.00 | 0.00 | 0.00 | 100 | 958.5 |
| 20260905064731 | 58 | 265 | 6.0 | 14.0 | 0.00 | 0.00 | 0.00 | 100 | 958.5 |
| 20260905064629 | 58 | 266 | 6.0 | 14.0 | 0.00 | 0.00 | 0.00 | 100 | 958.5 |
| 20260905064426 | 58 | 266 | 6.0 | 14.0 | 0.00 | 0.00 | 0.00 | 100 | 958.5 |
| 20260905064223 | 57 | 260 | 6.0 | 17.0 | 0.00 | 0.00 | 0.00 | 100 | 958.6 |
| 20260905064122 | 57 | 252 | 6.0 | 17.0 | 0.00 | 0.00 | 0.00 | 100 | 958.5 |
| 20260905064020 | 57 | 252 | 6.0 | 17.0 | 0.00 | 0.00 | 0.00 | 100 | 958.4 |
| 20260905063817 | 57 | 238 | 3.0 | 12.0 | 0.00 | 0.00 | 0.00 | 100 | 958.4 |
| 20260905063614 | 58 | 229 | 2.0 | 12.0 | 0.00 | 0.00 | 0.00 | 100 | 958.1 |
| 20260905063513 | 58 | 235 | 2.0 | 12.0 | 0.00 | 0.00 | 0.00 | 100 | 958.1 |
| 20260905063411 | 58 | 233 | 3.0 | 12.0 | 0.00 | 0.00 | 0.00 | 100 | 958.1 |
| 20260905063208 | 58 | 232 | 2.0 | 9.0 | 0.00 | 0.00 | 0.00 | 100 | 958.2 |
| 20260905063005 | 58 | 223 | 2.0 | 9.0 | 0.00 | 0.00 | 0.00 | 100 | 958.1 |
| 20260905062904 | 58 | 232 | 2.0 | 12.0 | 0.00 | 0.00 | 0.00 | 100 | 958.0 |
| 20260905062801 | 58 | 233 | 2.0 | 12.0 | 0.00 | 0.00 | 0.00 | 100 | 958.0 |
| 20260905062557 | 58 | 227 | 3.0 | 12.0 | 0.00 | 0.00 | 0.00 | 100 | 958.1 |
| 20260905062354 | 58 | 232 | 2.0 | 14.0 | 0.00 | 0.00 | 0.00 | 100 | 958.4 |
| 20260905062254 | 58 | 233 | 2.0 | 14.0 | 0.00 | 0.00 | 0.00 | 100 | 958.4 |
| 20260905062151 | 58 | 235 | 3.0 | 14.0 | 0.00 | 0.00 | 0.00 | 100 | 958.5 |
| 20260905061948 | 58 | 222 | 2.0 | 9.0 | 0.00 | 0.00 | 0.00 | 100 | 958.6 |
| 20260905061745 | 59 | 230 | 2.0 | 11.0 | 0.00 | 0.00 | 0.00 | 100 | 958.6 |
| 20260905061645 | 59 | 241 | 3.0 | 12.0 | 0.00 | 0.00 | 0.00 | 100 | 958.7 |
| 20260905061542 | 59 | 245 | 4.0 | 16.0 | 0.00 | 0.00 | 0.00 | 100 | 958.6 |
| 20260905061339 | 59 | 253 | 6.0 | 17.0 | 0.00 | 0.00 | 0.00 | 100 | 958.6 |
| 20260905061136 | 59 | 252 | 6.0 | 17.0 | 0.00 | 0.00 | 0.00 | 100 | 958.4 |
| 20260905061036 | 59 | 253 | 6.0 | 17.0 | 0.00 | 0.00 | 0.00 | 100 | 958.2 |
| 20260905060933 | 59 | 252 | 6.0 | 16.0 | 0.00 | 0.00 | 0.00 | 100 | 958.2 |
| 20260905060730 | 59 | 267 | 8.0 | 16.0 | 0.00 | 0.00 | 0.00 | 100 | 958.3 |
| 20260905060527 | 59 | 277 | 9.0 | 16.0 | 0.00 | 0.00 | 0.00 | 100 | 958.2 |
| 20260905060427 | 60 | 273 | 9.0 | 21.0 | 0.00 | 0.00 | 0.00 | 100 | 958.2 |
| 20260905060324 | 59 | 268 | 7.0 | 21.0 | 0.00 | 0.00 | 0.00 | 100 | 958.3 |
| 20260905060121 | 60 | 257 | 7.0 | 19.0 | 0.00 | 0.00 | 0.00 | 100 | 958.5 |
| 20260905055918 | 60 | 258 | 9.0 | 25.0 | 0.00 | 0.00 | 0.00 | 100 | 958.6 |
| 20260905055716 | 60 | 256 | 9.0 | 25.0 | 0.00 | 0.00 | 0.00 | 100 | 958.6 |
| 20260905055512 | 60 | 270 | 9.0 | 24.0 | 0.00 | 0.00 | 0.00 | 100 | 958.4 |
| 20260905055310 | 60 | 280 | 10.0 | 19.0 | 0.00 | 0.00 | 0.00 | 100 | 958.4 |
| 20260905055209 | 60 | 273 | 9.0 | 19.0 | 0.00 | 0.00 | 0.00 | 100 | 958.4 |
| 20260905055108 | 61 | 275 | 9.0 | 19.0 | 0.00 | 0.00 | 0.00 | 100 | 958.4 |
| 20260905054905 | 61 | 285 | 10.0 | 22.0 | 0.00 | 0.00 | 0.00 | 100 | 958.4 |
| 20260905054702 | 61 | 282 | 12.0 | 22.0 | 0.00 | 0.00 | 0.00 | 100 | 958.2 |
| 20260905054601 | 61 | 270 | 11.0 | 22.0 | 0.00 | 0.00 | 0.00 | 100 | 958.1 |
| 20260905054458 | 61 | 261 | 8.0 | 15.0 | 0.00 | 0.00 | 0.00 | 100 | 958.2 |
| 20260905054255 | 61 | 265 | 7.0 | 20.0 | 0.00 | 0.00 | 0.00 | 100 | 957.8 |
| 20260905054052 | 61 | 268 | 8.0 | 20.0 | 0.00 | 0.00 | 0.00 | 100 | 957.6 |
| 20260905053952 | 61 | 268 | 9.0 | 20.0 | 0.00 | 0.00 | 0.00 | 100 | 957.7 |
| 20260905053849 | 61 | 260 | 6.0 | 19.0 | 0.00 | 0.00 | 0.00 | 100 | 957.9 |
| 20260905053645 | 61 | 260 | 5.0 | 16.0 | 0.00 | 0.00 | 0.00 | 100 | 957.7 |
| 20260905053442 | 61 | 282 | 7.0 | 14.0 | 0.00 | 0.00 | 0.00 | 100 | 957.9 |
| 20260905053341 | 61 | 283 | 7.0 | 14.0 | 0.00 | 0.00 | 0.00 | 100 | 958.1 |
| 20260905053239 | 61 | 281 | 8.0 | 14.0 | 0.00 | 0.00 | 0.00 | 100 | 958.3 |
| 20260905053036 | 61 | 275 | 7.0 | 14.0 | 0.00 | 0.00 | 0.00 | 100 | 958.1 |
| 20260905052833 | 61 | 266 | 6.0 | 12.0 | 0.00 | 0.00 | 0.00 | 100 | 957.9 |
| 20260905052630 | 61 | 277 | 8.0 | 14.0 | 0.00 | 0.00 | 0.00 | 100 | 957.8 |
| 20260905052426 | 61 | 295 | 9.0 | 15.0 | 0.00 | 0.00 | 0.00 | 100 | 957.9 |
| 20260905052223 | 61 | 301 | 8.0 | 15.0 | 0.00 | 0.00 | 0.00 | 100 | 957.9 |
| 20260905052123 | 61 | 298 | 8.0 | 14.0 | 0.00 | 0.00 | 0.00 | 100 | 957.9 |
| 20260905052021 | 61 | 300 | 8.0 | 14.0 | 0.00 | 0.00 | 0.00 | 100 | 957.8 |
| 20260905051818 | 61 | 300 | 8.0 | 14.0 | 0.00 | 0.00 | 0.00 | 100 | 957.7 |
| 20260905051614 | 61 | 307 | 6.0 | 10.0 | 0.00 | 0.00 | 0.00 | 100 | 957.7 |
| 20260905051514 | 61 | 304 | 6.0 | 10.0 | 0.00 | 0.00 | 0.00 | 100 | 957.7 |
| 20260905051412 | 61 | 307 | 7.0 | 15.0 | 0.00 | 0.00 | 0.00 | 100 | 957.6 |
| 20260905051208 | 61 | 308 | 8.0 | 15.0 | 0.00 | 0.00 | 0.00 | 100 | 957.6 |
| 20260905051005 | 61 | 304 | 7.0 | 12.0 | 0.00 | 0.00 | 0.00 | 100 | 957.6 |
| 20260905050905 | 61 | 301 | 7.0 | 12.0 | 0.00 | 0.00 | 0.00 | 100 | 957.5 |
| 20260905050802 | 61 | 297 | 7.0 | 12.0 | 0.00 | 0.00 | 0.00 | 100 | 957.5 |
| 20260905050546 | 61 | 311 | 7.0 | 16.0 | 0.00 | 0.00 | 0.00 | 100 | 957.3 |
| 20260905050343 | 61 | 308 | 8.0 | 16.0 | 0.00 | 0.00 | 0.00 | 100 | 956.9 |
| 20260905050242 | 61 | 302 | 9.0 | 16.0 | 0.00 | 0.00 | 0.00 | 100 | 957.0 |
| 20260905050140 | 61 | 299 | 9.0 | 15.0 | 0.00 | 0.00 | 0.00 | 100 | 957.0 |
| 20260905045936 | 61 | 296 | 11.0 | 18.0 | 0.00 | 0.00 | 0.00 | 100 | 957.4 |
| 20260905045733 | 61 | 295 | 11.0 | 19.0 | 0.00 | 0.00 | 0.00 | 100 | 957.4 |
| 20260905045633 | 61 | 295 | 11.0 | 19.0 | 0.00 | 0.00 | 0.00 | 100 | 957.4 |
| 20260905045530 | 61 | 295 | 11.0 | 19.0 | 0.00 | 0.00 | 0.00 | 100 | 957.7 |
| 20260905045327 | 61 | 295 | 9.0 | 17.0 | 0.00 | 0.00 | 0.00 | 100 | 958.0 |
| 20260905045124 | 61 | 298 | 9.0 | 12.0 | 0.00 | 0.00 | 0.00 | 100 | 957.7 |
| 20260905045024 | 61 | 301 | 8.0 | 12.0 | 0.00 | 0.00 | 0.00 | 100 | 957.6 |
| 20260905044921 | 61 | 305 | 8.0 | 12.0 | 0.00 | 0.00 | 0.00 | 100 | 957.5 |
| 20260905044719 | 60 | 303 | 9.0 | 15.0 | 0.00 | 0.00 | 0.00 | 100 | 957.2 |
| 20260905044515 | 61 | 291 | 8.0 | 15.0 | 0.00 | 0.00 | 0.00 | 100 | 957.4 |
| 20260905044414 | 61 | 289 | 8.0 | 15.0 | 0.00 | 0.00 | 0.00 | 100 | 957.3 |
| 20260905044312 | 60 | 290 | 7.0 | 12.0 | 0.00 | 0.00 | 0.00 | 100 | 957.3 |
| 20260905044109 | 61 | 296 | 7.0 | 12.0 | 0.00 | 0.00 | 0.00 | 100 | 957.2 |
| 20260905043906 | 60 | 299 | 7.0 | 12.0 | 0.00 | 0.00 | 0.00 | 100 | 957.1 |
| 20260905043805 | 60 | 306 | 7.0 | 12.0 | 0.00 | 0.00 | 0.00 | 100 | 957.1 |
| 20260905043702 | 61 | 309 | 8.0 | 12.0 | 0.00 | 0.00 | 0.00 | 100 | 957.1 |
| 20260905043500 | 61 | 309 | 8.0 | 13.0 | 0.00 | 0.00 | 0.00 | 100 | 957.2 |
| 20260905043257 | 61 | 312 | 9.0 | 14.0 | 0.00 | 0.00 | 0.00 | 100 | 957.2 |
| 20260905043249 | 61 | 316 | 9.0 | 14.0 | 0.00 | 0.00 | 0.00 | 100 | 957.3 |
| 20260905043156 | 61 | 316 | 9.0 | 14.0 | 0.00 | 0.00 | 0.00 | 100 | 957.3 |
| 20260905043054 | 61 | 314 | 10.0 | 17.0 | 0.00 | 0.00 | 0.00 | 100 | 957.3 |
| 20260905042851 | 61 | 296 | 11.0 | 20.0 | 0.00 | 0.00 | 0.00 | 100 | 957.3 |
| 20260905042648 | 61 | 283 | 9.0 | 20.0 | 0.00 | 0.00 | 0.00 | 100 | 957.2 |
| 20260905042548 | 61 | 277 | 8.0 | 13.0 | 0.00 | 0.00 | 0.00 | 100 | 957.3 |
| 20260905042444 | 61 | 285 | 10.0 | 24.0 | 0.00 | 0.00 | 0.00 | 100 | 957.2 |
| 20260905042241 | 61 | 293 | 10.0 | 23.0 | 0.00 | 0.00 | 0.00 | 100 | 957.3 |
| 20260905042038 | 60 | 294 | 9.0 | 20.0 | 0.00 | 0.00 | 0.00 | 100 | 957.3 |
| 20260905041937 | 61 | 281 | 9.0 | 13.0 | 0.00 | 0.00 | 0.00 | 100 | 957.2 |
| 20260905041835 | 60 | 282 | 8.0 | 16.0 | 0.00 | 0.00 | 0.00 | 100 | 957.2 |
| 20260905041632 | 60 | 285 | 8.0 | 15.0 | 0.00 | 0.00 | 0.00 | 100 | 957.1 |
| 20260905041428 | 60 | 289 | 8.0 | 15.0 | 0.00 | 0.00 | 0.00 | 100 | 956.9 |
| 20260905041327 | 61 | 291 | 9.0 | 15.0 | 0.00 | 0.00 | 0.00 | 100 | 957.0 |
| 20260905041225 | 61 | 295 | 11.0 | 30.0 | 0.00 | 0.00 | 0.00 | 100 | 956.8 |
| 20260905041022 | 61 | 295 | 12.0 | 30.0 | 0.00 | 0.00 | 0.00 | 100 | 956.6 |
| 20260905040819 | 61 | 283 | 11.0 | 21.0 | 0.00 | 0.00 | 0.00 | 100 | 956.7 |
| 20260905040617 | 62 | 285 | 8.0 | 21.0 | 0.00 | 0.00 | 0.00 | 100 | 957.0 |
| 20260905040414 | 62 | 300 | 7.0 | 12.0 | 0.00 | 0.00 | 0.00 | 100 | 957.2 |
| 20260905040211 | 62 | 320 | 7.0 | 10.0 | 0.00 | 0.00 | 0.00 | 100 | 957.1 |
| 20260905040111 | 62 | 322 | 6.0 | 10.0 | 0.00 | 0.00 | 0.00 | 100 | 957.0 |
| 20260905040008 | 62 | 320 | 4.0 | 9.0 | 0.00 | 0.00 | 0.00 | 100 | 957.0 |
| 20260905035805 | 62 | 310 | 3.0 | 5.0 | 0.00 | 0.00 | 0.00 | 100 | 956.9 |
| 20260905035602 | 62 | 315 | 3.0 | 7.0 | 0.00 | 0.00 | 0.00 | 100 | 956.8 |
| 20260905035501 | 62 | 313 | 4.0 | 7.0 | 0.00 | 0.00 | 0.00 | 100 | 956.7 |
| 20260905035359 | 63 | 318 | 4.0 | 7.0 | 0.00 | 0.00 | 0.00 | 100 | 956.7 |
| 20260905035156 | 63 | 325 | 4.0 | 6.0 | 0.00 | 0.00 | 0.00 | 100 | 956.6 |
| 20260905034953 | 63 | 324 | 4.0 | 10.0 | 0.00 | 0.00 | 0.00 | 100 | 956.6 |
| 20260905034749 | 62 | 318 | 3.0 | 10.0 | 0.00 | 0.00 | 0.00 | 100 | 956.7 |
| 20260905034546 | 62 | 318 | 3.0 | 10.0 | 0.00 | 0.00 | 0.00 | 100 | 956.7 |
| 20260905034343 | 62 | 331 | 4.0 | 9.0 | 0.00 | 0.00 | 0.00 | 100 | 956.6 |
| 20260905034242 | 62 | 333 | 5.0 | 9.0 | 0.00 | 0.00 | 0.00 | 100 | 956.6 |
| 20260905034140 | 62 | 335 | 5.0 | 9.0 | 0.00 | 0.00 | 0.00 | 100 | 956.5 |
| 20260905033937 | 62 | 320 | 6.0 | 10.0 | 0.00 | 0.00 | 0.00 | 100 | 956.5 |
| 20260905033734 | 62 | 299 | 5.0 | 10.0 | 0.00 | 0.00 | 0.00 | 100 | 956.6 |
| 20260905033632 | 62 | 292 | 5.0 | 10.0 | 0.00 | 0.00 | 0.00 | 100 | 956.6 |
| 20260905033530 | 62 | 282 | 5.0 | 12.0 | 0.00 | 0.00 | 0.00 | 100 | 956.6 |
| 20260905033327 | 62 | 293 | 6.0 | 12.0 | 0.00 | 0.00 | 0.00 | 100 | 956.4 |
| 20260905033124 | 62 | 306 | 6.0 | 10.0 | 0.00 | 0.00 | 0.00 | 100 | 956.4 |
| 20260905033023 | 62 | 313 | 5.0 | 10.0 | 0.00 | 0.00 | 0.00 | 100 | 956.3 |
| 20260905032920 | 62 | 310 | 5.0 | 10.0 | 0.00 | 0.00 | 0.00 | 100 | 956.5 |
| 20260905032717 | 62 | 316 | 4.0 | 6.0 | 0.00 | 0.00 | 0.00 | 100 | 956.4 |
| 20260905032513 | 62 | 311 | 4.0 | 8.0 | 0.00 | 0.00 | 0.00 | 100 | 956.4 |
| 20260905032413 | 62 | 299 | 5.0 | 13.0 | 0.00 | 0.00 | 0.00 | 100 | 956.3 |
| 20260905032310 | 62 | 296 | 6.0 | 14.0 | 0.00 | 0.00 | 0.00 | 100 | 956.3 |
| 20260905032107 | 62 | 297 | 8.0 | 21.0 | 0.00 | 0.00 | 0.00 | 100 | 956.2 |
| 20260905031905 | 62 | 290 | 10.0 | 21.0 | 0.00 | 0.00 | 0.00 | 100 | 956.3 |
| 20260905031701 | 62 | 294 | 11.0 | 16.0 | 0.00 | 0.00 | 0.00 | 100 | 956.3 |
| 20260905031458 | 62 | 299 | 10.0 | 16.0 | 0.00 | 0.00 | 0.00 | 100 | 956.6 |
| 20260905031254 | 62 | 292 | 9.0 | 14.0 | 0.00 | 0.00 | 0.00 | 100 | 956.7 |
| 20260905031153 | 62 | 296 | 8.0 | 14.0 | 0.00 | 0.00 | 0.00 | 100 | 956.7 |
| 20260905031051 | 62 | 296 | 8.0 | 14.0 | 0.00 | 0.00 | 0.00 | 100 | 956.6 |
| 20260905030848 | 62 | 302 | 8.0 | 14.0 | 0.00 | 0.00 | 0.00 | 100 | 956.7 |
| 20260905030645 | 62 | 311 | 9.0 | 14.0 | 0.00 | 0.00 | 0.00 | 100 | 956.5 |
| 20260905030545 | 62 | 309 | 9.0 | 14.0 | 0.00 | 0.00 | 0.00 | 100 | 956.6 |
| 20260905030443 | 62 | 309 | 10.0 | 18.0 | 0.00 | 0.00 | 0.00 | 100 | 956.6 |
| 20260905030240 | 62 | 300 | 10.0 | 18.0 | 0.00 | 0.00 | 0.00 | 100 | 956.7 |
| 20260905030036 | 62 | 300 | 11.0 | 18.0 | 0.00 | 0.00 | 0.00 | 100 | 956.6 |
| 20260905025936 | 62 | 301 | 11.0 | 18.0 | 0.00 | 0.00 | 0.00 | 100 | 956.6 |
| 20260905025833 | 62 | 301 | 11.0 | 18.0 | 0.00 | 0.00 | 0.00 | 100 | 956.6 |
| 20260905025630 | 62 | 302 | 11.0 | 18.0 | 0.00 | 0.00 | 0.00 | 100 | 956.6 |
| 20260905025427 | 62 | 302 | 9.0 | 16.0 | 0.00 | 0.00 | 0.00 | 100 | 956.6 |
| 20260905025326 | 62 | 304 | 8.0 | 16.0 | 0.00 | 0.00 | 0.00 | 100 | 956.6 |
| 20260905025224 | 62 | 299 | 8.0 | 16.0 | 0.00 | 0.00 | 0.00 | 100 | 956.7 |
| 20260905025021 | 62 | 301 | 8.0 | 12.0 | 0.00 | 0.00 | 0.00 | 100 | 956.7 |
| 20260905024817 | 62 | 296 | 9.0 | 16.0 | 0.00 | 0.00 | 0.00 | 100 | 956.7 |
| 20260905024716 | 62 | 289 | 10.0 | 16.0 | 0.00 | 0.00 | 0.00 | 100 | 956.7 |
| 20260905024614 | 62 | 287 | 10.0 | 16.0 | 0.00 | 0.00 | 0.00 | 100 | 956.4 |
| 20260905024410 | 62 | 295 | 9.0 | 15.0 | 0.00 | 0.00 | 0.00 | 100 | 956.3 |
| 20260905024207 | 62 | 301 | 8.0 | 12.0 | 0.00 | 0.00 | 0.00 | 100 | 956.5 |
| 20260905024107 | 62 | 301 | 9.0 | 14.0 | 0.00 | 0.00 | 0.00 | 100 | 956.6 |
| 20260905024005 | 62 | 296 | 10.0 | 18.0 | 0.00 | 0.00 | 0.00 | 100 | 956.6 |
| 20260905023801 | 62 | 296 | 9.0 | 18.0 | 0.00 | 0.00 | 0.00 | 100 | 956.6 |
| 20260905023558 | 62 | 296 | 6.0 | 13.0 | 0.00 | 0.00 | 0.00 | 100 | 956.8 |
| 20260905023457 | 62 | 303 | 5.0 | 10.0 | 0.00 | 0.00 | 0.00 | 100 | 956.8 |
| 20260905023355 | 62 | 304 | 5.0 | 12.0 | 0.00 | 0.00 | 0.00 | 100 | 956.8 |
| 20260905023152 | 62 | 300 | 7.0 | 13.0 | 0.00 | 0.00 | 0.00 | 100 | 956.7 |
| 20260905022949 | 63 | 308 | 8.0 | 14.0 | 0.00 | 0.00 | 0.00 | 100 | 956.7 |
| 20260905022848 | 63 | 323 | 8.0 | 14.0 | 0.00 | 0.00 | 0.00 | 100 | 956.7 |
| 20260905022746 | 63 | 323 | 8.0 | 14.0 | 0.00 | 0.00 | 0.00 | 100 | 956.6 |
| 20260905022533 | 63 | 314 | 8.0 | 17.0 | 0.00 | 0.00 | 0.00 | 100 | 956.7 |
| 20260905022330 | 63 | 295 | 10.0 | 17.0 | 0.00 | 0.00 | 0.00 | 100 | 956.7 |
| 20260905022127 | 63 | 296 | 11.0 | 16.0 | 0.00 | 0.00 | 0.00 | 100 | 956.8 |
| 20260905021924 | 63 | 300 | 10.0 | 16.0 | 0.00 | 0.00 | 0.00 | 100 | 956.9 |
| 20260905021721 | 62 | 298 | 8.0 | 15.0 | 0.00 | 0.00 | 0.00 | 100 | 957.0 |
| 20260905021620 | 62 | 293 | 6.0 | 10.0 | 0.00 | 0.00 | 0.00 | 100 | 956.9 |
| 20260905021517 | 62 | 288 | 6.0 | 9.0 | 0.00 | 0.00 | 0.00 | 100 | 956.9 |
| 20260905021314 | 62 | 293 | 6.0 | 9.0 | 0.00 | 0.00 | 0.00 | 100 | 957.0 |
| 20260905021111 | 62 | 298 | 7.0 | 12.0 | 0.00 | 0.00 | 0.00 | 100 | 956.9 |
| 20260905021010 | 63 | 303 | 7.0 | 12.0 | 0.00 | 0.00 | 0.00 | 100 | 956.9 |
| 20260905020908 | 63 | 308 | 7.0 | 14.0 | 0.00 | 0.00 | 0.00 | 100 | 956.9 |
| 20260905020705 | 63 | 299 | 8.0 | 16.0 | 0.00 | 0.00 | 0.00 | 100 | 956.8 |
| 20260905020502 | 63 | 292 | 8.0 | 16.0 | 0.00 | 0.00 | 0.00 | 100 | 956.8 |
| 20260905020402 | 62 | 297 | 8.0 | 13.0 | 0.00 | 0.00 | 0.00 | 100 | 956.7 |
| 20260905020259 | 63 | 302 | 8.0 | 13.0 | 0.00 | 0.00 | 0.00 | 100 | 956.8 |
| 20260905020055 | 63 | 316 | 8.0 | 15.0 | 0.00 | 0.00 | 0.00 | 100 | 956.8 |
| 20260905015852 | 63 | 307 | 10.0 | 16.0 | 0.00 | 0.00 | 0.00 | 100 | 956.7 |
| 20260905015752 | 63 | 300 | 10.0 | 18.0 | 0.00 | 0.00 | 0.00 | 100 | 956.8 |
| 20260905015649 | 63 | 297 | 10.0 | 18.0 | 0.00 | 0.00 | 0.00 | 100 | 956.8 |
| 20260905015445 | 63 | 310 | 8.0 | 18.0 | 0.00 | 0.00 | 0.00 | 100 | 956.7 |
| 20260905015242 | 63 | 316 | 11.0 | 24.0 | 0.00 | 0.00 | 0.00 | 100 | 956.7 |
| 20260905015142 | 63 | 310 | 11.0 | 24.0 | 0.00 | 0.00 | 0.00 | 100 | 956.6 |
| 20260905015039 | 63 | 306 | 11.0 | 24.0 | 0.00 | 0.00 | 0.00 | 100 | 956.7 |
| 20260905014835 | 63 | 310 | 7.0 | 17.0 | 0.00 | 0.00 | 0.00 | 100 | 956.5 |
| 20260905014632 | 62 | 307 | 8.0 | 12.0 | 0.00 | 0.00 | 0.00 | 100 | 956.6 |
| 20260905014533 | 63 | 298 | 8.0 | 12.0 | 0.00 | 0.00 | 0.00 | 100 | 956.7 |
| 20260905014429 | 63 | 296 | 8.0 | 12.0 | 0.00 | 0.00 | 0.00 | 100 | 956.8 |
| 20260905014226 | 63 | 299 | 8.0 | 12.0 | 0.00 | 0.00 | 0.00 | 100 | 956.8 |
| 20260905014023 | 62 | 301 | 8.0 | 12.0 | 0.00 | 0.00 | 0.00 | 100 | 956.7 |
| 20260905013922 | 63 | 305 | 8.0 | 12.0 | 0.00 | 0.00 | 0.00 | 100 | 956.7 |
| 20260905013820 | 62 | 304 | 8.0 | 11.0 | 0.00 | 0.00 | 0.00 | 100 | 956.8 |
| 20260905013618 | 62 | 308 | 8.0 | 17.0 | 0.00 | 0.00 | 0.00 | 100 | 956.6 |
| 20260905013414 | 62 | 312 | 7.0 | 17.0 | 0.00 | 0.00 | 0.00 | 100 | 956.8 |
| 20260905013314 | 62 | 311 | 7.0 | 17.0 | 0.00 | 0.00 | 0.00 | 100 | 956.6 |
| 20260905013211 | 62 | 308 | 7.0 | 12.0 | 0.00 | 0.00 | 0.00 | 100 | 956.6 |
| 20260905013008 | 62 | 308 | 7.0 | 12.0 | 0.00 | 0.00 | 0.00 | 100 | 956.7 |
| 20260905012805 | 62 | 304 | 7.0 | 13.0 | 0.00 | 0.00 | 0.00 | 100 | 956.7 |
| 20260905012704 | 62 | 303 | 9.0 | 16.0 | 0.00 | 0.00 | 0.00 | 100 | 956.7 |
| 20260905012602 | 62 | 304 | 10.0 | 16.0 | 0.00 | 0.00 | 0.00 | 100 | 956.7 |
| 20260905012359 | 62 | 302 | 10.0 | 16.0 | 0.00 | 0.00 | 0.00 | 100 | 956.6 |
| 20260905012156 | 62 | 316 | 8.0 | 16.0 | 0.00 | 0.00 | 0.00 | 100 | 956.4 |
| 20260905012055 | 62 | 319 | 11.0 | 25.0 | 0.00 | 0.00 | 0.00 | 100 | 956.5 |
| 20260905011952 | 62 | 319 | 11.0 | 25.0 | 0.00 | 0.00 | 0.00 | 100 | 956.6 |
| 20260905011749 | 62 | 319 | 10.0 | 25.0 | 0.00 | 0.00 | 0.00 | 100 | 956.5 |
| 20260905011546 | 63 | 311 | 12.0 | 26.0 | 0.00 | 0.00 | 0.00 | 100 | 956.5 |
| 20260905011445 | 63 | 312 | 14.0 | 26.0 | 0.00 | 0.00 | 0.00 | 100 | 956.6 |
| 20260905011342 | 63 | 311 | 14.0 | 26.0 | 0.00 | 0.00 | 0.00 | 100 | 956.6 |
| 20260905011139 | 63 | 319 | 13.0 | 24.0 | 0.00 | 0.00 | 0.00 | 100 | 956.4 |
| 20260905010936 | 63 | 324 | 9.0 | 16.0 | 0.00 | 0.00 | 0.00 | 100 | 956.5 |
| 20260905010836 | 63 | 321 | 10.0 | 16.0 | 0.00 | 0.00 | 0.00 | 100 | 956.4 |
| 20260905010733 | 63 | 318 | 10.0 | 16.0 | 0.00 | 0.00 | 0.00 | 100 | 956.6 |
| 20260905010530 | 63 | 300 | 13.0 | 28.0 | 0.00 | 0.00 | 0.00 | 100 | 956.5 |
| 20260905010326 | 63 | 296 | 12.0 | 28.0 | 0.00 | 0.00 | 0.00 | 100 | 956.5 |
| 20260905010225 | 63 | 298 | 10.0 | 23.0 | 0.00 | 0.00 | 0.00 | 100 | 956.5 |
| 20260905010123 | 63 | 311 | 8.0 | 22.0 | 0.00 | 0.00 | 0.00 | 100 | 956.7 |
| 20260905005920 | 63 | 336 | 5.0 | 14.0 | 0.00 | 0.00 | 0.00 | 100 | 956.4 |
| 20260905005717 | 63 | 335 | 5.0 | 10.0 | 0.00 | 0.00 | 0.00 | 100 | 956.4 |
| 20260905005617 | 63 | 326 | 5.0 | 10.0 | 0.00 | 0.00 | 0.00 | 100 | 956.4 |
| 20260905005515 | 63 | 321 | 6.0 | 10.0 | 0.00 | 0.00 | 0.00 | 100 | 956.2 |
| 20260905005312 | 63 | 319 | 7.0 | 10.0 | 0.00 | 0.00 | 0.00 | 100 | 956.4 |
| 20260905005109 | 63 | 321 | 7.0 | 10.0 | 0.00 | 0.00 | 0.00 | 100 | 956.3 |
| 20260905005008 | 63 | 320 | 7.0 | 11.0 | 0.00 | 0.00 | 0.00 | 100 | 956.3 |
| 20260905004906 | 63 | 325 | 7.0 | 11.0 | 0.00 | 0.00 | 0.00 | 100 | 956.2 |
| 20260905004703 | 63 | 323 | 6.0 | 13.0 | 0.00 | 0.00 | 0.00 | 100 | 956.2 |
| 20260905004500 | 63 | 320 | 7.0 | 13.0 | 0.00 | 0.00 | 0.00 | 100 | 956.2 |
| 20260905004359 | 64 | 317 | 8.0 | 16.0 | 0.00 | 0.00 | 0.00 | 100 | 956.0 |
| 20260905004256 | 64 | 318 | 8.0 | 16.0 | 0.00 | 0.00 | 0.00 | 100 | 956.1 |